Wetterdaten: Mittwoch, 08.05.2013
Datum Zeit Temp. Aussen +5cm Feuchte Auss Luftdruck Regen Sonnenschein Regendauer UV Solar Windben
08.05.2013 00:00 13,5 C 11,2 C 97 % 1012,4 hPa 0,0 l/m 0 min 0 min 0,0 UV-I 0 W/m 0,0 km/h (0 Bft)
08.05.2013 00:02 13,4 C 11,2 C 97 % 1012,4 hPa 0,0 l/m 0 min 0 min 0,0 UV-I 0 W/m 2,6 km/h (1 Bft)
08.05.2013 00:06 13,4 C 11,2 C 97 % 1012,4 hPa 0,0 l/m 0 min 0 min 0,0 UV-I 0 W/m 0,0 km/h (0 Bft)
08.05.2013 00:08 13,3 C 11,2 C 97 % 1012,4 hPa 0,0 l/m 0 min 0 min 0,0 UV-I 0 W/m 0,0 km/h (0 Bft)
08.05.2013 00:10 13,3 C 11,2 C 97 % 1012,4 hPa 0,0 l/m 0 min 0 min 0,0 UV-I 0 W/m 0,0 km/h (0 Bft)
08.05.2013 00:12 13,3 C 11,2 C 97 % 1012,4 hPa 0,0 l/m 0 min 0 min 0,0 UV-I 0 W/m 0,0 km/h (0 Bft)
08.05.2013 00:14 13,3 C 11,2 C 97 % 1012,4 hPa 0,0 l/m 0 min 0 min 0,0 UV-I 0 W/m 2,6 km/h (1 Bft)
08.05.2013 00:16 13,2 C 11,2 C 97 % 1012,4 hPa 0,0 l/m 0 min 0 min 0,0 UV-I 0 W/m 5,1 km/h (1 Bft)
08.05.2013 00:18 13,2 C 11,2 C 97 % 1012,4 hPa 0,0 l/m 0 min 0 min 0,0 UV-I 0 W/m 0,0 km/h (0 Bft)
08.05.2013 00:20 13,2 C 11,2 C 97 % 1012,4 hPa 0,0 l/m 0 min 0 min 0,0 UV-I 0 W/m 0,0 km/h (0 Bft)
08.05.2013 00:22 13,2 C 11,2 C 97 % 1012,4 hPa 0,0 l/m 0 min 0 min 0,0 UV-I 0 W/m 0,0 km/h (0 Bft)
08.05.2013 00:24 13,2 C 11,2 C 97 % 1012,4 hPa 0,0 l/m 0 min 0 min 0,0 UV-I 0 W/m 0,0 km/h (0 Bft)
08.05.2013 00:26 13,1 C 11,2 C 97 % 1012,3 hPa 0,0 l/m 0 min 0 min 0,0 UV-I 0 W/m 0,0 km/h (0 Bft)
08.05.2013 00:28 13,1 C 11,2 C 97 % 1012,3 hPa 0,0 l/m 0 min 0 min 0,0 UV-I 0 W/m 0,0 km/h (0 Bft)
08.05.2013 00:30 13,1 C 11,2 C 97 % 1012,4 hPa 0,0 l/m 0 min 0 min 0,0 UV-I 0 W/m 0,0 km/h (0 Bft)
08.05.2013 00:32 13,1 C 11,2 C 97 % 1012,3 hPa 0,0 l/m 0 min 0 min 0,0 UV-I 0 W/m 0,0 km/h (0 Bft)
08.05.2013 00:34 13,0 C 10,7 C 97 % 1012,3 hPa 0,0 l/m 0 min 0 min 0,0 UV-I 0 W/m 0,0 km/h (0 Bft)
08.05.2013 00:36 13,0 C 10,7 C 97 % 1012,3 hPa 0,0 l/m 0 min 0 min 0,0 UV-I 0 W/m 0,0 km/h (0 Bft)
08.05.2013 00:38 12,9 C 10,7 C 97 % 1012,3 hPa 0,0 l/m 0 min 0 min 0,0 UV-I 0 W/m 0,0 km/h (0 Bft)
08.05.2013 00:40 12,9 C 10,7 C 97 % 1012,3 hPa 0,0 l/m 0 min 0 min 0,0 UV-I 0 W/m 0,0 km/h (0 Bft)
08.05.2013 00:42 12,9 C 10,7 C 97 % 1012,3 hPa 0,0 l/m 0 min 0 min 0,0 UV-I 0 W/m 0,0 km/h (0 Bft)
08.05.2013 00:44 12,9 C 10,7 C 97 % 1012,3 hPa 0,0 l/m 0 min 0 min 0,0 UV-I 0 W/m 5,1 km/h (1 Bft)
08.05.2013 00:46 12,8 C 10,7 C 97 % 1012,3 hPa 0,0 l/m 0 min 0 min 0,0 UV-I 0 W/m 5,1 km/h (1 Bft)
08.05.2013 00:48 12,8 C 10,7 C 97 % 1012,2 hPa 0,0 l/m 0 min 0 min 0,0 UV-I 0 W/m 0,0 km/h (0 Bft)
08.05.2013 00:50 12,8 C 10,7 C 97 % 1012,2 hPa 0,0 l/m 0 min 0 min 0,0 UV-I 0 W/m 0,0 km/h (0 Bft)
08.05.2013 00:52 12,7 C 10,7 C 97 % 1012,2 hPa 0,0 l/m 0 min 0 min 0,0 UV-I 0 W/m 0,0 km/h (0 Bft)
08.05.2013 00:54 12,7 C 10,7 C 97 % 1012,2 hPa 0,0 l/m 0 min 0 min 0,0 UV-I 0 W/m 0,0 km/h (0 Bft)
08.05.2013 00:56 12,7 C 10,7 C 97 % 1012,1 hPa 0,0 l/m 0 min 0 min 0,0 UV-I 0 W/m 0,0 km/h (0 Bft)
08.05.2013 00:58 12,7 C 10,7 C 97 % 1012,1 hPa 0,0 l/m 0 min 0 min 0,0 UV-I 0 W/m 0,0 km/h (0 Bft)
08.05.2013 01:00 12,6 C 10,7 C 97 % 1012,1 hPa 0,0 l/m 0 min 0 min 0,0 UV-I 0 W/m 0,0 km/h (0 Bft)
08.05.2013 01:02 12,6 C 10,7 C 97 % 1012,1 hPa 0,0 l/m 0 min 0 min 0,0 UV-I 0 W/m 0,0 km/h (0 Bft)
08.05.2013 01:04 12,6 C 10,7 C 97 % 1012,1 hPa 0,0 l/m 0 min 0 min 0,0 UV-I 0 W/m 7,7 km/h (2 Bft)
08.05.2013 01:06 12,6 C 10,7 C 97 % 1012,2 hPa 0,0 l/m 0 min 0 min 0,0 UV-I 0 W/m 2,6 km/h (1 Bft)
08.05.2013 01:08 12,6 C 10,7 C 97 % 1012,2 hPa 0,0 l/m 0 min 0 min 0,0 UV-I 0 W/m 0,0 km/h (0 Bft)
08.05.2013 01:10 12,5 C 10,7 C 97 % 1012,2 hPa 0,0 l/m 0 min 0 min 0,0 UV-I 0 W/m 2,6 km/h (1 Bft)
08.05.2013 01:12 12,5 C 10,7 C 97 % 1012,1 hPa 0,0 l/m 0 min 0 min 0,0 UV-I 0 W/m 0,0 km/h (0 Bft)
08.05.2013 01:14 12,4 C 10,7 C 97 % 1012,2 hPa 0,0 l/m 0 min 0 min 0,0 UV-I 0 W/m 0,0 km/h (0 Bft)
08.05.2013 01:16 12,4 C 10,7 C 97 % 1012,2 hPa 0,0 l/m 0 min 0 min 0,0 UV-I 0 W/m 0,0 km/h (0 Bft)
08.05.2013 01:18 12,4 C 10,7 C 97 % 1012,2 hPa 0,0 l/m 0 min 0 min 0,0 UV-I 0 W/m 0,0 km/h (0 Bft)
08.05.2013 01:20 12,4 C 10,7 C 97 % 1012,1 hPa 0,0 l/m 0 min 0 min 0,0 UV-I 0 W/m 0,0 km/h (0 Bft)
08.05.2013 01:22 12,4 C 10,7 C 97 % 1012,1 hPa 0,0 l/m 0 min 0 min 0,0 UV-I 0 W/m 2,6 km/h (1 Bft)
08.05.2013 01:24 12,4 C 10,7 C 97 % 1012,1 hPa 0,0 l/m 0 min 0 min 0,0 UV-I 0 W/m 0,0 km/h (0 Bft)
08.05.2013 01:26 12,3 C 10,7 C 97 % 1012,1 hPa 0,0 l/m 0 min 0 min 0,0 UV-I 0 W/m 0,0 km/h (0 Bft)
08.05.2013 01:28 12,3 C 10,7 C 97 % 1012,1 hPa 0,0 l/m 0 min 0 min 0,0 UV-I 0 W/m 0,0 km/h (0 Bft)
08.05.2013 01:30 12,3 C 10,7 C 97 % 1012,1 hPa 0,0 l/m 0 min 0 min 0,0 UV-I 0 W/m 0,0 km/h (0 Bft)
08.05.2013 01:32 12,3 C 10,7 C 97 % 1012,1 hPa 0,0 l/m 0 min 0 min 0,0 UV-I 0 W/m 0,0 km/h (0 Bft)
08.05.2013 01:34 12,3 C 10,7 C 97 % 1012,1 hPa 0,0 l/m 0 min 0 min 0,0 UV-I 0 W/m 0,0 km/h (0 Bft)
08.05.2013 01:36 12,2 C 10,7 C 97 % 1012,1 hPa 0,0 l/m 0 min 0 min 0,0 UV-I 0 W/m 5,1 km/h (1 Bft)
08.05.2013 01:38 12,2 C 10,1 C 97 % 1012,1 hPa 0,0 l/m 0 min 0 min 0,0 UV-I 0 W/m 5,1 km/h (1 Bft)
08.05.2013 01:40 12,2 C 10,1 C 97 % 1012,1 hPa 0,0 l/m 0 min 0 min 0,0 UV-I 0 W/m 5,1 km/h (1 Bft)
08.05.2013 01:42 12,2 C 10,1 C 97 % 1012,0 hPa 0,0 l/m 0 min 0 min 0,0 UV-I 0 W/m 0,0 km/h (0 Bft)
08.05.2013 01:44 12,2 C 10,1 C 97 % 1012,0 hPa 0,0 l/m 0 min 0 min 0,0 UV-I 0 W/m 0,0 km/h (0 Bft)
08.05.2013 01:46 12,2 C 10,7 C 97 % 1011,9 hPa 0,0 l/m 0 min 0 min 0,0 UV-I 0 W/m 0,0 km/h (0 Bft)
08.05.2013 01:48 12,1 C 10,1 C 97 % 1011,9 hPa 0,0 l/m 0 min 0 min 0,0 UV-I 0 W/m 0,0 km/h (0 Bft)
08.05.2013 01:50 12,1 C 10,1 C 97 % 1011,9 hPa 0,0 l/m 0 min 0 min 0,0 UV-I 0 W/m 0,0 km/h (0 Bft)
08.05.2013 01:52 12,1 C 10,1 C 97 % 1011,9 hPa 0,0 l/m 0 min 0 min 0,0 UV-I 0 W/m 0,0 km/h (0 Bft)
08.05.2013 01:54 12,1 C 10,1 C 97 % 1011,9 hPa 0,0 l/m 0 min 0 min 0,0 UV-I 0 W/m 0,0 km/h (0 Bft)
08.05.2013 01:56 12,1 C 10,1 C 97 % 1012,0 hPa 0,0 l/m 0 min 0 min 0,0 UV-I 0 W/m 0,0 km/h (0 Bft)
08.05.2013 01:58 12,0 C 10,1 C 97 % 1012,0 hPa 0,0 l/m 0 min 0 min 0,0 UV-I 0 W/m 0,0 km/h (0 Bft)
08.05.2013 02:00 12,0 C 10,1 C 97 % 1011,9 hPa 0,0 l/m 0 min 0 min 0,0 UV-I 0 W/m 0,0 km/h (0 Bft)
08.05.2013 02:02 12,0 C 10,1 C 97 % 1011,9 hPa 0,0 l/m 0 min 0 min 0,0 UV-I 0 W/m 0,0 km/h (0 Bft)
08.05.2013 02:04 11,9 C 10,1 C 97 % 1011,9 hPa 0,0 l/m 0 min 0 min 0,0 UV-I 0 W/m 0,0 km/h (0 Bft)
08.05.2013 02:06 11,9 C 10,1 C 97 % 1011,9 hPa 0,0 l/m 0 min 0 min 0,0 UV-I 0 W/m 5,1 km/h (1 Bft)
08.05.2013 02:08 11,9 C 10,1 C 97 % 1011,9 hPa 0,0 l/m 0 min 0 min 0,0 UV-I 0 W/m 5,1 km/h (1 Bft)
08.05.2013 02:10 11,9 C 10,1 C 97 % 1011,9 hPa 0,0 l/m 0 min 0 min 0,0 UV-I 0 W/m 2,6 km/h (1 Bft)
08.05.2013 02:12 11,9 C 10,1 C 97 % 1011,9 hPa 0,0 l/m 0 min 0 min 0,0 UV-I 0 W/m 0,0 km/h (0 Bft)
08.05.2013 02:14 11,9 C 10,1 C 97 % 1011,9 hPa 0,0 l/m 0 min 0 min 0,0 UV-I 0 W/m 0,0 km/h (0 Bft)
08.05.2013 02:16 11,8 C 10,1 C 97 % 1011,9 hPa 0,0 l/m 0 min 0 min 0,0 UV-I 0 W/m 0,0 km/h (0 Bft)
08.05.2013 02:18 11,8 C 10,1 C 97 % 1011,9 hPa 0,0 l/m 0 min 0 min 0,0 UV-I 0 W/m 0,0 km/h (0 Bft)
08.05.2013 02:20 11,8 C 10,1 C 97 % 1011,8 hPa 0,0 l/m 0 min 0 min 0,0 UV-I 0 W/m 0,0 km/h (0 Bft)
08.05.2013 02:22 11,8 C 10,1 C 97 % 1011,8 hPa 0,0 l/m 0 min 0 min 0,0 UV-I 0 W/m 0,0 km/h (0 Bft)
08.05.2013 02:24 11,8 C 10,1 C 97 % 1011,8 hPa 0,0 l/m 0 min 0 min 0,0 UV-I 0 W/m 0,0 km/h (0 Bft)
08.05.2013 02:26 11,8 C 10,1 C 97 % 1011,8 hPa 0,0 l/m 0 min 0 min 0,0 UV-I 0 W/m 0,0 km/h (0 Bft)
08.05.2013 02:28 11,7 C 10,1 C 97 % 1011,8 hPa 0,0 l/m 0 min 0 min 0,0 UV-I 0 W/m 0,0 km/h (0 Bft)
08.05.2013 02:30 11,7 C 10,1 C 97 % 1011,8 hPa 0,0 l/m 0 min 0 min 0,0 UV-I 0 W/m 0,0 km/h (0 Bft)
08.05.2013 02:32 11,7 C 10,1 C 97 % 1011,7 hPa 0,0 l/m 0 min 0 min 0,0 UV-I 0 W/m 0,0 km/h (0 Bft)
08.05.2013 02:34 11,7 C 10,1 C 97 % 1011,7 hPa 0,0 l/m 0 min 0 min 0,0 UV-I 0 W/m 0,0 km/h (0 Bft)
08.05.2013 02:36 11,7 C 10,1 C 97 % 1011,7 hPa 0,0 l/m 0 min 0 min 0,0 UV-I 0 W/m 2,6 km/h (1 Bft)
08.05.2013 02:38 11,7 C 10,1 C 97 % 1011,8 hPa 0,0 l/m 0 min 0 min 0,0 UV-I 0 W/m 0,0 km/h (0 Bft)
08.05.2013 02:40 11,7 C 10,1 C 97 % 1011,8 hPa 0,0 l/m 0 min 0 min 0,0 UV-I 0 W/m 0,0 km/h (0 Bft)
08.05.2013 02:42 11,7 C 10,1 C 97 % 1011,8 hPa 0,0 l/m 0 min 0 min 0,0 UV-I 0 W/m 0,0 km/h (0 Bft)
08.05.2013 02:44 11,7 C 10,1 C 97 % 1011,8 hPa 0,0 l/m 0 min 0 min 0,0 UV-I 0 W/m 0,0 km/h (0 Bft)
08.05.2013 02:46 11,7 C 10,1 C 97 % 1011,9 hPa 0,0 l/m 0 min 0 min 0,0 UV-I 0 W/m 0,0 km/h (0 Bft)
08.05.2013 02:48 11,7 C 10,1 C 97 % 1011,8 hPa 0,0 l/m 0 min 0 min 0,0 UV-I 0 W/m 5,1 km/h (1 Bft)
08.05.2013 02:50 11,7 C 10,1 C 97 % 1011,8 hPa 0,0 l/m 0 min 0 min 0,0 UV-I 0 W/m 7,7 km/h (2 Bft)
08.05.2013 02:52 11,7 C 10,1 C 97 % 1011,8 hPa 0,0 l/m 0 min 0 min 0,0 UV-I 0 W/m 2,6 km/h (1 Bft)
08.05.2013 02:54 11,7 C 10,1 C 97 % 1011,7 hPa 0,0 l/m 0 min 0 min 0,0 UV-I 0 W/m 7,7 km/h (2 Bft)
08.05.2013 02:56 11,7 C 10,1 C 97 % 1011,8 hPa 0,0 l/m 0 min 0 min 0,0 UV-I 0 W/m 0,0 km/h (0 Bft)
08.05.2013 02:58 11,6 C 10,1 C 97 % 1011,7 hPa 0,0 l/m 0 min 0 min 0,0 UV-I 0 W/m 0,0 km/h (0 Bft)
08.05.2013 03:00 11,6 C 10,1 C 97 % 1011,7 hPa 0,0 l/m 0 min 0 min 0,0 UV-I 0 W/m 0,0 km/h (0 Bft)
08.05.2013 03:02 11,6 C 9,6 C 97 % 1011,7 hPa 0,0 l/m 0 min 0 min 0,0 UV-I 0 W/m 0,0 km/h (0 Bft)
08.05.2013 03:04 11,6 C 10,1 C 97 % 1011,6 hPa 0,0 l/m 0 min 0 min 0,0 UV-I 0 W/m 0,0 km/h (0 Bft)
08.05.2013 03:06 11,6 C 9,6 C 98 % 1011,5 hPa 0,0 l/m 0 min 0 min 0,0 UV-I 0 W/m 0,0 km/h (0 Bft)
08.05.2013 03:08 11,6 C 9,6 C 98 % 1011,5 hPa 0,0 l/m 0 min 0 min 0,0 UV-I 0 W/m 0,0 km/h (0 Bft)
08.05.2013 03:10 11,6 C 9,6 C 97 % 1011,6 hPa 0,0 l/m 0 min 0 min 0,0 UV-I 0 W/m 7,7 km/h (2 Bft)
08.05.2013 03:12 11,5 C 9,6 C 97 % 1011,6 hPa 0,0 l/m 0 min 0 min 0,0 UV-I 0 W/m 5,1 km/h (1 Bft)
08.05.2013 03:14 11,5 C 9,6 C 97 % 1011,6 hPa 0,0 l/m 0 min 0 min 0,0 UV-I 0 W/m 0,0 km/h (0 Bft)
08.05.2013 03:16 11,5 C 9,6 C 97 % 1011,5 hPa 0,0 l/m 0 min 0 min 0,0 UV-I 0 W/m 0,0 km/h (0 Bft)
08.05.2013 03:18 11,4 C 9,6 C 97 % 1011,6 hPa 0,0 l/m 0 min 0 min 0,0 UV-I 0 W/m 0,0 km/h (0 Bft)
08.05.2013 03:20 11,4 C 9,6 C 97 % 1011,4 hPa 0,0 l/m 0 min 0 min 0,0 UV-I 0 W/m 0,0 km/h (0 Bft)
08.05.2013 03:22 11,4 C 9,6 C 97 % 1011,4 hPa 0,0 l/m 0 min 0 min 0,0 UV-I 0 W/m 0,0 km/h (0 Bft)
08.05.2013 03:24 11,4 C 9,6 C 97 % 1011,4 hPa 0,0 l/m 0 min 0 min 0,0 UV-I 0 W/m 0,0 km/h (0 Bft)
08.05.2013 03:26 11,4 C 9,6 C 97 % 1011,5 hPa 0,0 l/m 0 min 0 min 0,0 UV-I 0 W/m 0,0 km/h (0 Bft)
08.05.2013 03:28 11,4 C 9,6 C 97 % 1011,5 hPa 0,0 l/m 0 min 0 min 0,0 UV-I 0 W/m 0,0 km/h (0 Bft)
08.05.2013 03:30 11,4 C 9,6 C 97 % 1011,6 hPa 0,0 l/m 0 min 0 min 0,0 UV-I 0 W/m 0,0 km/h (0 Bft)
08.05.2013 03:32 11,3 C 9,6 C 98 % 1011,6 hPa 0,0 l/m 0 min 0 min 0,0 UV-I 0 W/m 0,0 km/h (0 Bft)
08.05.2013 03:34 11,3 C 9,6 C 98 % 1011,6 hPa 0,0 l/m 0 min 0 min 0,0 UV-I 0 W/m 0,0 km/h (0 Bft)
08.05.2013 03:36 11,3 C 9,6 C 98 % 1011,6 hPa 0,0 l/m 0 min 0 min 0,0 UV-I 0 W/m 0,0 km/h (0 Bft)
08.05.2013 03:38 11,3 C 9,6 C 98 % 1011,6 hPa 0,0 l/m 0 min 0 min 0,0 UV-I 0 W/m 0,0 km/h (0 Bft)
08.05.2013 03:40 11,3 C 9,6 C 98 % 1011,6 hPa 0,0 l/m 0 min 0 min 0,0 UV-I 0 W/m 0,0 km/h (0 Bft)
08.05.2013 03:42 11,3 C 9,6 C 98 % 1011,6 hPa 0,0 l/m 0 min 0 min 0,0 UV-I 0 W/m 0,0 km/h (0 Bft)
08.05.2013 03:44 11,2 C 9,6 C 98 % 1011,6 hPa 0,0 l/m 0 min 0 min 0,0 UV-I 0 W/m 0,0 km/h (0 Bft)
08.05.2013 03:46 11,2 C 9,6 C 97 % 1011,5 hPa 0,0 l/m 0 min 0 min 0,0 UV-I 0 W/m 0,0 km/h (0 Bft)
08.05.2013 03:48 11,2 C 9,6 C 97 % 1011,6 hPa 0,0 l/m 0 min 0 min 0,0 UV-I 0 W/m 0,0 km/h (0 Bft)
08.05.2013 03:50 11,2 C 9,6 C 97 % 1011,5 hPa 0,0 l/m 0 min 0 min 0,0 UV-I 0 W/m 0,0 km/h (0 Bft)
08.05.2013 03:52 11,2 C 9,6 C 97 % 1011,5 hPa 0,0 l/m 0 min 0 min 0,0 UV-I 0 W/m 0,0 km/h (0 Bft)
08.05.2013 03:54 11,2 C 9,6 C 97 % 1011,6 hPa 0,0 l/m 0 min 0 min 0,0 UV-I 0 W/m 0,0 km/h (0 Bft)
08.05.2013 03:56 11,2 C 9,6 C 97 % 1011,5 hPa 0,0 l/m 0 min 0 min 0,0 UV-I 0 W/m 0,0 km/h (0 Bft)
08.05.2013 03:58 11,2 C 9,6 C 97 % 1011,5 hPa 0,0 l/m 0 min 0 min 0,0 UV-I 0 W/m 0,0 km/h (0 Bft)
08.05.2013 04:00 11,2 C 9,6 C 97 % 1011,6 hPa 0,0 l/m 0 min 0 min 0,0 UV-I 0 W/m 0,0 km/h (0 Bft)
08.05.2013 04:02 11,1 C 9,6 C 97 % 1011,5 hPa 0,0 l/m 0 min 0 min 0,0 UV-I 0 W/m 0,0 km/h (0 Bft)
08.05.2013 04:04 11,1 C 9,6 C 97 % 1011,4 hPa 0,0 l/m 0 min 0 min 0,0 UV-I 0 W/m 0,0 km/h (0 Bft)
08.05.2013 04:06 11,1 C 9,6 C 97 % 1011,3 hPa 0,0 l/m 0 min 0 min 0,0 UV-I 0 W/m 0,0 km/h (0 Bft)
08.05.2013 04:08 11,1 C 9,6 C 97 % 1011,3 hPa 0,0 l/m 0 min 0 min 0,0 UV-I 0 W/m 0,0 km/h (0 Bft)
08.05.2013 04:10 11,1 C 9,6 C 97 % 1011,4 hPa 0,0 l/m 0 min 0 min 0,0 UV-I 0 W/m 0,0 km/h (0 Bft)
08.05.2013 04:12 11,1 C 9,6 C 98 % 1011,4 hPa 0,0 l/m 0 min 0 min 0,0 UV-I 0 W/m 0,0 km/h (0 Bft)
08.05.2013 04:14 11,0 C 9,6 C 98 % 1011,3 hPa 0,0 l/m 0 min 0 min 0,0 UV-I 0 W/m 0,0 km/h (0 Bft)
08.05.2013 04:16 11,0 C 9,6 C 98 % 1011,3 hPa 0,0 l/m 0 min 0 min 0,0 UV-I 0 W/m 0,0 km/h (0 Bft)
08.05.2013 04:18 11,0 C 9,0 C 98 % 1011,3 hPa 0,0 l/m 0 min 0 min 0,0 UV-I 0 W/m 0,0 km/h (0 Bft)
08.05.2013 04:20 10,9 C 9,0 C 98 % 1011,3 hPa 0,0 l/m 0 min 0 min 0,0 UV-I 0 W/m 0,0 km/h (0 Bft)
08.05.2013 04:22 10,9 C 9,6 C 98 % 1011,3 hPa 0,0 l/m 0 min 0 min 0,0 UV-I 0 W/m 0,0 km/h (0 Bft)
08.05.2013 04:24 10,9 C 9,6 C 98 % 1011,3 hPa 0,0 l/m 0 min 0 min 0,0 UV-I 0 W/m 0,0 km/h (0 Bft)
08.05.2013 04:26 10,9 C 9,6 C 98 % 1011,2 hPa 0,0 l/m 0 min 0 min 0,0 UV-I 0 W/m 0,0 km/h (0 Bft)
08.05.2013 04:28 10,9 C 9,0 C 98 % 1011,4 hPa 0,0 l/m 0 min 0 min 0,0 UV-I 0 W/m 0,0 km/h (0 Bft)
08.05.2013 04:30 10,9 C 9,0 C 98 % 1011,4 hPa 0,0 l/m 0 min 0 min 0,0 UV-I 0 W/m 0,0 km/h (0 Bft)
08.05.2013 04:32 10,9 C 9,0 C 98 % 1011,4 hPa 0,0 l/m 0 min 0 min 0,0 UV-I 0 W/m 0,0 km/h (0 Bft)
08.05.2013 04:34 10,9 C 9,0 C 98 % 1011,3 hPa 0,0 l/m 0 min 0 min 0,0 UV-I 0 W/m 0,0 km/h (0 Bft)
08.05.2013 04:36 10,8 C 9,0 C 98 % 1011,3 hPa 0,0 l/m 0 min 0 min 0,0 UV-I 0 W/m 0,0 km/h (0 Bft)
08.05.2013 04:38 10,8 C 9,0 C 98 % 1011,3 hPa 0,0 l/m 0 min 0 min 0,0 UV-I 0 W/m 0,0 km/h (0 Bft)
08.05.2013 04:40 10,8 C 9,0 C 97 % 1011,3 hPa 0,0 l/m 0 min 0 min 0,0 UV-I 0 W/m 0,0 km/h (0 Bft)
08.05.2013 04:42 10,8 C 9,0 C 98 % 1011,3 hPa 0,0 l/m 0 min 0 min 0,0 UV-I 0 W/m 0,0 km/h (0 Bft)
08.05.2013 04:44 10,8 C 9,0 C 98 % 1011,3 hPa 0,0 l/m 0 min 0 min 0,0 UV-I 0 W/m 0,0 km/h (0 Bft)
08.05.2013 04:46 10,8 C 9,0 C 98 % 1011,2 hPa 0,0 l/m 0 min 0 min 0,0 UV-I 0 W/m 0,0 km/h (0 Bft)
08.05.2013 04:48 10,8 C 9,0 C 98 % 1011,2 hPa 0,0 l/m 0 min 0 min 0,0 UV-I 0 W/m 0,0 km/h (0 Bft)
08.05.2013 04:50 10,8 C 9,0 C 98 % 1011,2 hPa 0,0 l/m 0 min 0 min 0,0 UV-I 0 W/m 0,0 km/h (0 Bft)
08.05.2013 04:52 10,8 C 9,0 C 98 % 1011,2 hPa 0,0 l/m 0 min 0 min 0,0 UV-I 0 W/m 0,0 km/h (0 Bft)
08.05.2013 04:54 10,8 C 9,0 C 98 % 1011,2 hPa 0,0 l/m 0 min 0 min 0,0 UV-I 0 W/m 0,0 km/h (0 Bft)
08.05.2013 04:56 10,7 C 9,0 C 98 % 1011,2 hPa 0,0 l/m 0 min 0 min 0,0 UV-I 0 W/m 0,0 km/h (0 Bft)
08.05.2013 04:58 10,7 C 9,0 C 98 % 1011,2 hPa 0,0 l/m 0 min 0 min 0,0 UV-I 0 W/m 0,0 km/h (0 Bft)
08.05.2013 05:00 10,7 C 9,0 C 98 % 1011,2 hPa 0,0 l/m 0 min 0 min 0,0 UV-I 0 W/m 0,0 km/h (0 Bft)
08.05.2013 05:02 10,7 C 9,0 C 98 % 1011,2 hPa 0,0 l/m 0 min 0 min 0,0 UV-I 0 W/m 0,0 km/h (0 Bft)
08.05.2013 05:04 10,7 C 9,0 C 98 % 1011,2 hPa 0,0 l/m 0 min 0 min 0,0 UV-I 0 W/m 0,0 km/h (0 Bft)
08.05.2013 05:06 10,7 C 9,0 C 98 % 1011,1 hPa 0,0 l/m 0 min 0 min 0,0 UV-I 0 W/m 0,0 km/h (0 Bft)
08.05.2013 05:08 10,7 C 9,0 C 98 % 1011,1 hPa 0,0 l/m 0 min 0 min 0,0 UV-I 0 W/m 0,0 km/h (0 Bft)
08.05.2013 05:10 10,7 C 9,0 C 98 % 1011,1 hPa 0,0 l/m 0 min 0 min 0,0 UV-I 0 W/m 0,0 km/h (0 Bft)
08.05.2013 05:12 10,6 C 9,0 C 98 % 1011,2 hPa 0,0 l/m 0 min 0 min 0,0 UV-I 0 W/m 0,0 km/h (0 Bft)
08.05.2013 05:14 10,6 C 9,0 C 98 % 1011,1 hPa 0,0 l/m 0 min 0 min 0,0 UV-I 0 W/m 0,0 km/h (0 Bft)
08.05.2013 05:16 10,6 C 9,0 C 98 % 1011,1 hPa 0,0 l/m 0 min 0 min 0,0 UV-I 0 W/m 2,6 km/h (1 Bft)
08.05.2013 05:18 10,6 C 9,0 C 98 % 1011,1 hPa 0,0 l/m 0 min 0 min 0,0 UV-I 0 W/m 5,1 km/h (1 Bft)
08.05.2013 05:20 10,6 C 9,0 C 98 % 1011,0 hPa 0,0 l/m 0 min 0 min 0,0 UV-I 0 W/m 2,6 km/h (1 Bft)
08.05.2013 05:22 10,6 C 9,0 C 98 % 1011,1 hPa 0,0 l/m 0 min 0 min 0,0 UV-I 0 W/m 0,0 km/h (0 Bft)
08.05.2013 05:24 10,6 C 9,0 C 98 % 1011,0 hPa 0,0 l/m 0 min 0 min 0,0 UV-I 0 W/m 7,7 km/h (2 Bft)
08.05.2013 05:26 10,6 C 9,0 C 98 % 1011,0 hPa 0,0 l/m 0 min 0 min 0,0 UV-I 0 W/m 5,1 km/h (1 Bft)
08.05.2013 05:28 10,6 C 9,0 C 98 % 1010,9 hPa 0,0 l/m 0 min 0 min 0,0 UV-I 0 W/m 5,1 km/h (1 Bft)
08.05.2013 05:30 10,6 C 9,0 C 98 % 1010,9 hPa 0,0 l/m 0 min 0 min 0,0 UV-I 0 W/m 5,1 km/h (1 Bft)
08.05.2013 05:32 10,5 C 9,0 C 98 % 1011,0 hPa 0,0 l/m 0 min 0 min 0,0 UV-I 0 W/m 10,3 km/h (2 Bft)
08.05.2013 05:34 10,5 C 9,0 C 98 % 1011,0 hPa 0,0 l/m 0 min 0 min 0,0 UV-I 0 W/m 5,1 km/h (1 Bft)
08.05.2013 05:36 10,5 C 9,0 C 98 % 1011,0 hPa 0,0 l/m 0 min 0 min 0,0 UV-I 0 W/m 7,7 km/h (2 Bft)
08.05.2013 05:38 10,5 C 9,0 C 98 % 1011,0 hPa 0,0 l/m 0 min 0 min 0,0 UV-I 0 W/m 7,7 km/h (2 Bft)
08.05.2013 05:40 10,5 C 9,0 C 98 % 1010,9 hPa 0,0 l/m 0 min 0 min 0,0 UV-I 0 W/m 5,1 km/h (1 Bft)
08.05.2013 05:42 10,4 C 9,0 C 98 % 1010,9 hPa 0,0 l/m 0 min 0 min 0,0 UV-I 0 W/m 5,1 km/h (1 Bft)
08.05.2013 05:44 10,4 C 9,0 C 98 % 1010,9 hPa 0,0 l/m 0 min 0 min 0,0 UV-I 0 W/m 7,7 km/h (2 Bft)
08.05.2013 05:46 10,4 C 9,0 C 98 % 1010,8 hPa 0,0 l/m 0 min 0 min 0,0 UV-I 0 W/m 7,7 km/h (2 Bft)
08.05.2013 05:48 10,4 C 9,0 C 98 % 1010,8 hPa 0,0 l/m 0 min 0 min 0,0 UV-I 0 W/m 7,7 km/h (2 Bft)
08.05.2013 05:50 10,4 C 9,0 C 98 % 1011,0 hPa 0,0 l/m 0 min 0 min 0,0 UV-I 0 W/m 7,7 km/h (2 Bft)
08.05.2013 05:52 10,4 C 9,0 C 98 % 1010,9 hPa 0,0 l/m 0 min 0 min 0,0 UV-I 0 W/m 10,3 km/h (2 Bft)
08.05.2013 05:54 10,4 C 9,0 C 98 % 1010,9 hPa 0,0 l/m 0 min 0 min 0,0 UV-I 0 W/m 7,7 km/h (2 Bft)
08.05.2013 05:56 10,3 C 9,0 C 98 % 1010,9 hPa 0,0 l/m 0 min 0 min 0,0 UV-I 5 W/m 0,0 km/h (0 Bft)
08.05.2013 05:58 10,3 C 9,0 C 98 % 1010,9 hPa 0,0 l/m 0 min 0 min 0,0 UV-I 5 W/m 0,0 km/h (0 Bft)
08.05.2013 06:00 10,3 C 9,0 C 98 % 1010,9 hPa 0,0 l/m 0 min 0 min 0,0 UV-I 5 W/m 5,1 km/h (1 Bft)
08.05.2013 06:02 10,3 C 9,0 C 98 % 1010,9 hPa 0,0 l/m 0 min 0 min 0,0 UV-I 7 W/m 0,0 km/h (0 Bft)
08.05.2013 06:04 10,3 C 9,0 C 98 % 1010,9 hPa 0,0 l/m 0 min 0 min 0,0 UV-I 7 W/m 2,6 km/h (1 Bft)
08.05.2013 06:06 10,3 C 9,0 C 98 % 1010,9 hPa 0,0 l/m 0 min 0 min 0,0 UV-I 7 W/m 0,0 km/h (0 Bft)
08.05.2013 06:08 10,3 C 9,0 C 98 % 1010,9 hPa 0,0 l/m 0 min 0 min 0,0 UV-I 7 W/m 0,0 km/h (0 Bft)
08.05.2013 06:10 10,3 C 9,0 C 98 % 1010,9 hPa 0,0 l/m 0 min 0 min 0,0 UV-I 7 W/m 0,0 km/h (0 Bft)
08.05.2013 06:12 10,2 C 9,0 C 98 % 1010,9 hPa 0,0 l/m 0 min 0 min 0,0 UV-I 9 W/m 0,0 km/h (0 Bft)
08.05.2013 06:14 10,2 C 9,0 C 98 % 1010,9 hPa 0,0 l/m 0 min 0 min 0,0 UV-I 11 W/m 0,0 km/h (0 Bft)
08.05.2013 06:16 10,2 C 9,0 C 98 % 1010,9 hPa 0,0 l/m 0 min 0 min 0,0 UV-I 11 W/m 0,0 km/h (0 Bft)
08.05.2013 06:18 10,2 C 9,0 C 98 % 1010,8 hPa 0,0 l/m 0 min 0 min 0,0 UV-I 11 W/m 0,0 km/h (0 Bft)
08.05.2013 06:20 10,2 C 9,0 C 98 % 1010,8 hPa 0,0 l/m 0 min 0 min 0,0 UV-I 11 W/m 0,0 km/h (0 Bft)
08.05.2013 06:22 10,2 C 9,0 C 98 % 1010,9 hPa 0,0 l/m 0 min 0 min 0,0 UV-I 12 W/m 2,6 km/h (1 Bft)
08.05.2013 06:24 10,2 C 9,0 C 98 % 1010,9 hPa 0,0 l/m 0 min 0 min 0,0 UV-I 14 W/m 0,0 km/h (0 Bft)
08.05.2013 06:26 10,2 C 9,0 C 98 % 1010,9 hPa 0,0 l/m 0 min 0 min 0,0 UV-I 14 W/m 0,0 km/h (0 Bft)
08.05.2013 06:28 10,2 C 9,0 C 98 % 1010,9 hPa 0,0 l/m 0 min 0 min 0,0 UV-I 16 W/m 0,0 km/h (0 Bft)
08.05.2013 06:30 10,2 C 9,0 C 98 % 1010,8 hPa 0,0 l/m 0 min 0 min 0,0 UV-I 16 W/m 0,0 km/h (0 Bft)
08.05.2013 06:32 10,2 C 9,0 C 98 % 1010,8 hPa 0,0 l/m 0 min 0 min 0,0 UV-I 18 W/m 0,0 km/h (0 Bft)
08.05.2013 06:34 10,2 C 9,0 C 98 % 1010,8 hPa 0,0 l/m 0 min 0 min 0,0 UV-I 18 W/m 5,1 km/h (1 Bft)
08.05.2013 06:36 10,2 C 9,0 C 98 % 1010,8 hPa 0,0 l/m 0 min 0 min 0,0 UV-I 18 W/m 2,6 km/h (1 Bft)
08.05.2013 06:38 10,2 C 9,0 C 98 % 1010,7 hPa 0,0 l/m 0 min 2 min 0,0 UV-I 19 W/m 0,0 km/h (0 Bft)
08.05.2013 06:40 10,2 C 9,0 C 98 % 1010,8 hPa 0,0 l/m 0 min 0 min 0,0 UV-I 21 W/m 0,0 km/h (0 Bft)
08.05.2013 06:42 10,2 C 9,0 C 98 % 1010,9 hPa 0,0 l/m 0 min 0 min 0,0 UV-I 23 W/m 0,0 km/h (0 Bft)
08.05.2013 06:44 10,2 C 9,0 C 98 % 1010,9 hPa 0,0 l/m 0 min 0 min 0,0 UV-I 26 W/m 5,1 km/h (1 Bft)
08.05.2013 06:46 10,2 C 9,0 C 98 % 1010,8 hPa 0,0 l/m 0 min 0 min 0,0 UV-I 30 W/m 5,1 km/h (1 Bft)
08.05.2013 06:48 10,2 C 9,0 C 98 % 1010,8 hPa 0,0 l/m 0 min 0 min 0,0 UV-I 32 W/m 0,0 km/h (0 Bft)
08.05.2013 06:50 10,2 C 9,0 C 98 % 1010,8 hPa 0,0 l/m 0 min 0 min 0,0 UV-I 35 W/m 5,1 km/h (1 Bft)
08.05.2013 06:52 10,2 C 9,0 C 98 % 1010,8 hPa 0,0 l/m 0 min 0 min 0,0 UV-I 39 W/m 5,1 km/h (1 Bft)
08.05.2013 06:54 10,2 C 9,0 C 98 % 1010,9 hPa 0,0 l/m 0 min 0 min 0,0 UV-I 40 W/m 5,1 km/h (1 Bft)
08.05.2013 06:56 10,2 C 9,0 C 98 % 1010,8 hPa 0,0 l/m 0 min 0 min 0,0 UV-I 40 W/m 0,0 km/h (0 Bft)
08.05.2013 06:58 10,2 C 9,0 C 98 % 1010,9 hPa 0,0 l/m 0 min 0 min 0,0 UV-I 39 W/m 7,7 km/h (2 Bft)
08.05.2013 07:00 10,2 C 9,0 C 98 % 1010,9 hPa 0,0 l/m 0 min 0 min 0,0 UV-I 37 W/m 0,0 km/h (0 Bft)
08.05.2013 07:02 10,2 C 9,0 C 98 % 1010,8 hPa 0,0 l/m 0 min 0 min 0,0 UV-I 37 W/m 2,6 km/h (1 Bft)
08.05.2013 07:04 10,2 C 9,0 C 98 % 1010,8 hPa 0,0 l/m 0 min 0 min 0,0 UV-I 37 W/m 2,6 km/h (1 Bft)
08.05.2013 07:06 10,2 C 9,0 C 98 % 1010,8 hPa 0,0 l/m 0 min 0 min 0,0 UV-I 40 W/m 5,1 km/h (1 Bft)
08.05.2013 07:08 10,2 C 9,0 C 98 % 1010,8 hPa 0,0 l/m 0 min 0 min 0,0 UV-I 42 W/m 0,0 km/h (0 Bft)
08.05.2013 07:10 10,2 C 9,0 C 98 % 1010,7 hPa 0,0 l/m 0 min 0 min 0,0 UV-I 46 W/m 0,0 km/h (0 Bft)
08.05.2013 07:12 10,2 C 9,0 C 98 % 1010,8 hPa 0,0 l/m 0 min 0 min 0,0 UV-I 51 W/m 0,0 km/h (0 Bft)
08.05.2013 07:14 10,2 C 9,6 C 98 % 1010,7 hPa 0,0 l/m 0 min 0 min 0,0 UV-I 54 W/m 10,3 km/h (2 Bft)
08.05.2013 07:16 10,2 C 9,6 C 98 % 1010,8 hPa 0,0 l/m 0 min 0 min 0,0 UV-I 56 W/m 5,1 km/h (1 Bft)
08.05.2013 07:18 10,2 C 9,6 C 98 % 1010,8 hPa 0,0 l/m 0 min 0 min 0,0 UV-I 60 W/m 7,7 km/h (2 Bft)
08.05.2013 07:20 10,3 C 9,6 C 98 % 1010,8 hPa 0,0 l/m 0 min 0 min 0,0 UV-I 62 W/m 10,3 km/h (2 Bft)
08.05.2013 07:22 10,3 C 9,6 C 98 % 1010,7 hPa 0,0 l/m 0 min 0 min 0,0 UV-I 63 W/m 5,1 km/h (1 Bft)
08.05.2013 07:24 10,3 C 9,6 C 99 % 1010,8 hPa 0,0 l/m 0 min 0 min 0,0 UV-I 63 W/m 2,6 km/h (1 Bft)
08.05.2013 07:26 10,3 C 9,6 C 99 % 1010,7 hPa 0,0 l/m 0 min 0 min 0,0 UV-I 63 W/m 10,3 km/h (2 Bft)
08.05.2013 07:28 10,4 C 9,6 C 99 % 1010,8 hPa 0,0 l/m 0 min 0 min 0,0 UV-I 67 W/m 10,3 km/h (2 Bft)
08.05.2013 07:30 10,4 C 9,6 C 99 % 1010,8 hPa 0,0 l/m 0 min 0 min 0,0 UV-I 67 W/m 10,3 km/h (2 Bft)
08.05.2013 07:32 10,4 C 9,6 C 99 % 1010,8 hPa 0,0 l/m 0 min 0 min 0,0 UV-I 69 W/m 5,1 km/h (1 Bft)
08.05.2013 07:34 10,4 C 9,6 C 99 % 1010,7 hPa 0,0 l/m 0 min 0 min 0,0 UV-I 69 W/m 5,1 km/h (1 Bft)
08.05.2013 07:36 10,5 C 9,6 C 99 % 1010,7 hPa 0,0 l/m 0 min 0 min 0,0 UV-I 69 W/m 12,9 km/h (3 Bft)
08.05.2013 07:38 10,6 C 9,6 C 99 % 1010,7 hPa 0,0 l/m 0 min 0 min 0,0 UV-I 67 W/m 5,1 km/h (1 Bft)
08.05.2013 07:40 10,6 C 9,6 C 99 % 1010,7 hPa 0,0 l/m 0 min 0 min 0,0 UV-I 69 W/m 15,4 km/h (3 Bft)
08.05.2013 07:42 10,6 C 10,1 C 99 % 1010,7 hPa 0,0 l/m 0 min 0 min 0,0 UV-I 72 W/m 7,7 km/h (2 Bft)
08.05.2013 07:44 10,6 C 10,1 C 99 % 1010,7 hPa 0,0 l/m 0 min 0 min 0,0 UV-I 72 W/m 7,7 km/h (2 Bft)
08.05.2013 07:46 10,7 C 10,1 C 99 % 1010,7 hPa 0,0 l/m 0 min 0 min 0,0 UV-I 74 W/m 7,7 km/h (2 Bft)
08.05.2013 07:48 10,7 C 10,1 C 99 % 1010,7 hPa 0,0 l/m 0 min 0 min 0,0 UV-I 77 W/m 7,7 km/h (2 Bft)
08.05.2013 07:50 10,7 C 10,1 C 99 % 1010,6 hPa 0,0 l/m 0 min 0 min 0,0 UV-I 77 W/m 10,3 km/h (2 Bft)
08.05.2013 07:52 10,8 C 10,1 C 99 % 1010,6 hPa 0,0 l/m 0 min 0 min 0,0 UV-I 81 W/m 7,7 km/h (2 Bft)
08.05.2013 07:54 10,8 C 10,1 C 99 % 1010,7 hPa 0,0 l/m 0 min 0 min 0,0 UV-I 90 W/m 7,7 km/h (2 Bft)
08.05.2013 07:56 10,9 C 10,1 C 99 % 1010,7 hPa 0,0 l/m 0 min 0 min 0,0 UV-I 97 W/m 7,7 km/h (2 Bft)
08.05.2013 07:58 10,9 C 10,7 C 99 % 1010,8 hPa 0,0 l/m 0 min 0 min 0,0 UV-I 98 W/m 12,9 km/h (3 Bft)
08.05.2013 08:00 11,0 C 10,7 C 99 % 1010,7 hPa 0,0 l/m 0 min 0 min 0,0 UV-I 102 W/m 10,3 km/h (2 Bft)
08.05.2013 08:02 11,1 C 10,7 C 99 % 1010,7 hPa 0,0 l/m 0 min 0 min 0,0 UV-I 113 W/m 12,9 km/h (3 Bft)
08.05.2013 08:04 11,1 C 10,7 C 99 % 1010,7 hPa 0,0 l/m 0 min 0 min 0,0 UV-I 144 W/m 10,3 km/h (2 Bft)
08.05.2013 08:06 11,2 C 10,7 C 99 % 1010,6 hPa 0,0 l/m 2 min 0 min 0,0 UV-I 179 W/m 12,9 km/h (3 Bft)
08.05.2013 08:08 11,2 C 11,2 C 99 % 1010,7 hPa 0,0 l/m 0 min 0 min 0,0 UV-I 176 W/m 7,7 km/h (2 Bft)
08.05.2013 08:10 11,3 C 11,2 C 99 % 1010,7 hPa 0,0 l/m 0 min 0 min 0,0 UV-I 172 W/m 7,7 km/h (2 Bft)
08.05.2013 08:12 11,4 C 11,2 C 99 % 1010,8 hPa 0,0 l/m 0 min 0 min 0,0 UV-I 149 W/m 12,9 km/h (3 Bft)
08.05.2013 08:14 11,5 C 11,2 C 99 % 1010,7 hPa 0,0 l/m 0 min 0 min 0,0 UV-I 134 W/m 10,3 km/h (2 Bft)
08.05.2013 08:16 11,6 C 11,2 C 99 % 1010,7 hPa 0,0 l/m 0 min 0 min 0,0 UV-I 128 W/m 12,9 km/h (3 Bft)
08.05.2013 08:18 11,6 C 11,8 C 99 % 1010,7 hPa 0,0 l/m 0 min 0 min 0,0 UV-I 127 W/m 7,7 km/h (2 Bft)
08.05.2013 08:20 11,7 C 11,8 C 99 % 1010,7 hPa 0,0 l/m 0 min 0 min 0,0 UV-I 155 W/m 12,9 km/h (3 Bft)
08.05.2013 08:22 11,7 C 11,8 C 99 % 1010,7 hPa 0,0 l/m 0 min 0 min 0,0 UV-I 153 W/m 10,3 km/h (2 Bft)
08.05.2013 08:24 11,8 C 11,8 C 99 % 1010,6 hPa 0,0 l/m 0 min 0 min 0,0 UV-I 158 W/m 15,4 km/h (3 Bft)
08.05.2013 08:26 11,8 C 11,8 C 99 % 1010,7 hPa 0,0 l/m 0 min 0 min 0,0 UV-I 171 W/m 10,3 km/h (2 Bft)
08.05.2013 08:28 11,9 C 11,8 C 99 % 1010,6 hPa 0,0 l/m 0 min 0 min 0,0 UV-I 172 W/m 10,3 km/h (2 Bft)
08.05.2013 08:30 12,0 C 11,8 C 99 % 1010,7 hPa 0,0 l/m 0 min 0 min 0,0 UV-I 156 W/m 10,3 km/h (2 Bft)
08.05.2013 08:32 12,1 C 11,8 C 99 % 1010,6 hPa 0,0 l/m 0 min 0 min 0,0 UV-I 148 W/m 7,7 km/h (2 Bft)
08.05.2013 08:34 12,1 C 11,8 C 99 % 1010,6 hPa 0,0 l/m 0 min 0 min 0,0 UV-I 171 W/m 10,3 km/h (2 Bft)
08.05.2013 08:36 12,1 C 11,8 C 99 % 1010,7 hPa 0,0 l/m 2 min 0 min 0,0 UV-I 225 W/m 15,4 km/h (3 Bft)
08.05.2013 08:38 12,2 C 12,3 C 99 % 1010,7 hPa 0,0 l/m 0 min 0 min 0,0 UV-I 214 W/m 12,9 km/h (3 Bft)
08.05.2013 08:40 12,2 C 12,3 C 99 % 1010,7 hPa 0,0 l/m 0 min 0 min 0,0 UV-I 176 W/m 7,7 km/h (2 Bft)
08.05.2013 08:42 12,3 C 12,3 C 99 % 1010,8 hPa 0,0 l/m 0 min 0 min 0,0 UV-I 139 W/m 10,3 km/h (2 Bft)
08.05.2013 08:44 12,3 C 12,3 C 99 % 1010,8 hPa 0,0 l/m 0 min 0 min 0,0 UV-I 130 W/m 10,3 km/h (2 Bft)
08.05.2013 08:46 12,4 C 12,3 C 99 % 1010,7 hPa 0,0 l/m 0 min 0 min 0,0 UV-I 132 W/m 12,9 km/h (3 Bft)
08.05.2013 08:48 12,4 C 12,3 C 99 % 1010,7 hPa 0,0 l/m 0 min 0 min 0,0 UV-I 134 W/m 15,4 km/h (3 Bft)
08.05.2013 08:50 12,4 C 12,3 C 99 % 1010,7 hPa 0,0 l/m 0 min 0 min 0,0 UV-I 128 W/m 10,3 km/h (2 Bft)
08.05.2013 08:52 12,5 C 12,3 C 99 % 1010,8 hPa 0,0 l/m 0 min 0 min 0,0 UV-I 109 W/m 12,9 km/h (3 Bft)
08.05.2013 08:54 12,5 C 12,3 C 99 % 1010,8 hPa 0,0 l/m 0 min 0 min 0,0 UV-I 105 W/m 15,4 km/h (3 Bft)
08.05.2013 08:56 12,5 C 12,3 C 99 % 1010,8 hPa 0,0 l/m 0 min 0 min 0,0 UV-I 105 W/m 15,4 km/h (3 Bft)
08.05.2013 08:58 12,6 C 12,3 C 99 % 1010,7 hPa 0,0 l/m 0 min 0 min 0,0 UV-I 109 W/m 7,7 km/h (2 Bft)
08.05.2013 09:00 12,6 C 12,3 C 99 % 1010,8 hPa 0,0 l/m 0 min 0 min 0,0 UV-I 104 W/m 7,7 km/h (2 Bft)
08.05.2013 09:02 12,6 C 12,3 C 99 % 1010,8 hPa 0,0 l/m 0 min 0 min 0,0 UV-I 98 W/m 5,1 km/h (1 Bft)
08.05.2013 09:04 12,6 C 12,3 C 99 % 1010,8 hPa 0,0 l/m 0 min 0 min 0,0 UV-I 97 W/m 7,7 km/h (2 Bft)
08.05.2013 09:06 12,6 C 12,3 C 99 % 1010,8 hPa 0,0 l/m 0 min 0 min 0,0 UV-I 91 W/m 7,7 km/h (2 Bft)
08.05.2013 09:08 12,6 C 12,3 C 99 % 1010,8 hPa 0,0 l/m 0 min 0 min 0,0 UV-I 84 W/m 2,6 km/h (1 Bft)
08.05.2013 09:10 12,7 C 12,3 C 99 % 1010,8 hPa 0,0 l/m 0 min 0 min 0,0 UV-I 76 W/m 2,6 km/h (1 Bft)
08.05.2013 09:12 12,7 C 12,3 C 99 % 1010,8 hPa 0,0 l/m 0 min 2 min 0,0 UV-I 69 W/m 10,3 km/h (2 Bft)
08.05.2013 09:14 12,7 C 12,3 C 99 % 1011,0 hPa 0,0 l/m 0 min 0 min 0,0 UV-I 63 W/m 7,7 km/h (2 Bft)
08.05.2013 09:16 12,8 C 12,3 C 99 % 1010,9 hPa 0,0 l/m 0 min 0 min 0,0 UV-I 53 W/m 10,3 km/h (2 Bft)
08.05.2013 09:18 12,8 C 12,3 C 99 % 1010,9 hPa 0,0 l/m 0 min 2 min 0,0 UV-I 46 W/m 5,1 km/h (1 Bft)
08.05.2013 09:20 12,8 C 11,8 C 99 % 1010,9 hPa 0,0 l/m 0 min 2 min 0,0 UV-I 40 W/m 7,7 km/h (2 Bft)
08.05.2013 09:22 12,8 C 11,8 C 99 % 1010,8 hPa 0,0 l/m 0 min 2 min 0,0 UV-I 35 W/m 2,6 km/h (1 Bft)
08.05.2013 09:24 12,8 C 11,8 C 99 % 1010,8 hPa 0,0 l/m 0 min 2 min 0,0 UV-I 30 W/m 2,6 km/h (1 Bft)
08.05.2013 09:26 12,8 C 11,8 C 99 % 1010,9 hPa 0,0 l/m 0 min 2 min 0,0 UV-I 25 W/m 7,7 km/h (2 Bft)
08.05.2013 09:28 12,8 C 11,8 C 99 % 1010,8 hPa 0,2 l/m 0 min 0 min 0,0 UV-I 28 W/m 7,7 km/h (2 Bft)
08.05.2013 09:30 12,8 C 11,8 C 99 % 1010,9 hPa 0,0 l/m 0 min 0 min 0,0 UV-I 39 W/m 5,1 km/h (1 Bft)
08.05.2013 09:32 12,8 C 11,8 C 99 % 1011,0 hPa 0,0 l/m 0 min 0 min 0,0 UV-I 47 W/m 5,1 km/h (1 Bft)
08.05.2013 09:34 12,8 C 11,8 C 99 % 1010,9 hPa 0,0 l/m 0 min 0 min 0,0 UV-I 53 W/m 10,3 km/h (2 Bft)
08.05.2013 09:36 12,8 C 12,3 C 99 % 1010,9 hPa 0,0 l/m 0 min 0 min 0,0 UV-I 53 W/m 10,3 km/h (2 Bft)
08.05.2013 09:38 12,9 C 12,3 C 99 % 1010,8 hPa 0,0 l/m 0 min 0 min 0,0 UV-I 60 W/m 7,7 km/h (2 Bft)
08.05.2013 09:40 12,9 C 12,3 C 99 % 1010,9 hPa 0,0 l/m 0 min 0 min 0,0 UV-I 72 W/m 7,7 km/h (2 Bft)
08.05.2013 09:42 12,9 C 12,3 C 99 % 1010,8 hPa 0,0 l/m 0 min 0 min 0,0 UV-I 88 W/m 7,7 km/h (2 Bft)
08.05.2013 09:44 12,9 C 12,3 C 99 % 1010,9 hPa 0,0 l/m 0 min 0 min 0,0 UV-I 105 W/m 10,3 km/h (2 Bft)
08.05.2013 09:46 12,9 C 12,3 C 99 % 1010,8 hPa 0,0 l/m 0 min 0 min 0,0 UV-I 125 W/m 2,6 km/h (1 Bft)
08.05.2013 09:48 12,9 C 12,9 C 99 % 1010,8 hPa 0,0 l/m 0 min 0 min 0,0 UV-I 132 W/m 0,0 km/h (0 Bft)
08.05.2013 09:50 13,0 C 12,9 C 99 % 1010,9 hPa 0,0 l/m 0 min 0 min 0,0 UV-I 139 W/m 5,1 km/h (1 Bft)
08.05.2013 09:52 13,1 C 12,9 C 99 % 1010,9 hPa 0,0 l/m 0 min 0 min 0,0 UV-I 146 W/m 15,4 km/h (3 Bft)
08.05.2013 09:54 13,1 C 12,9 C 99 % 1010,9 hPa 0,0 l/m 0 min 0 min 0,0 UV-I 151 W/m 10,3 km/h (2 Bft)
08.05.2013 09:56 13,1 C 12,9 C 99 % 1010,8 hPa 0,0 l/m 0 min 0 min 0,0 UV-I 156 W/m 10,3 km/h (2 Bft)
08.05.2013 09:58 13,2 C 12,9 C 99 % 1010,8 hPa 0,0 l/m 0 min 0 min 0,0 UV-I 162 W/m 5,1 km/h (1 Bft)
08.05.2013 10:00 13,2 C 12,9 C 99 % 1010,8 hPa 0,0 l/m 0 min 0 min 0,0 UV-I 167 W/m 7,7 km/h (2 Bft)
08.05.2013 10:02 13,3 C 12,9 C 99 % 1010,8 hPa 0,0 l/m 0 min 0 min 0,0 UV-I 176 W/m 0,0 km/h (0 Bft)
08.05.2013 10:04 13,3 C 13,4 C 99 % 1010,7 hPa 0,0 l/m 0 min 0 min 0,0 UV-I 178 W/m 15,4 km/h (3 Bft)
08.05.2013 10:06 13,4 C 13,4 C 99 % 1010,8 hPa 0,0 l/m 0 min 0 min 0,0 UV-I 176 W/m 12,9 km/h (3 Bft)
08.05.2013 10:08 13,4 C 13,4 C 99 % 1010,8 hPa 0,0 l/m 0 min 0 min 0,0 UV-I 179 W/m 12,9 km/h (3 Bft)
08.05.2013 10:10 13,4 C 13,4 C 99 % 1010,7 hPa 0,0 l/m 0 min 0 min 0,0 UV-I 185 W/m 15,4 km/h (3 Bft)
08.05.2013 10:12 13,5 C 13,4 C 99 % 1010,8 hPa 0,0 l/m 0 min 0 min 0,0 UV-I 190 W/m 10,3 km/h (2 Bft)
08.05.2013 10:14 13,6 C 13,4 C 99 % 1010,9 hPa 0,0 l/m 0 min 0 min 0,0 UV-I 190 W/m 5,1 km/h (1 Bft)
08.05.2013 10:16 13,6 C 13,4 C 99 % 1010,9 hPa 0,0 l/m 0 min 0 min 0,0 UV-I 181 W/m 7,7 km/h (2 Bft)
08.05.2013 10:18 13,7 C 13,4 C 99 % 1010,9 hPa 0,0 l/m 0 min 0 min 0,0 UV-I 176 W/m 5,1 km/h (1 Bft)
08.05.2013 10:20 13,7 C 13,4 C 99 % 1010,9 hPa 0,0 l/m 0 min 0 min 0,0 UV-I 207 W/m 10,3 km/h (2 Bft)
08.05.2013 10:22 13,8 C 14,0 C 99 % 1010,8 hPa 0,0 l/m 0 min 0 min 0,7 UV-I 251 W/m 15,4 km/h (3 Bft)
08.05.2013 10:24 13,8 C 14,0 C 99 % 1010,8 hPa 0,0 l/m 0 min 0 min 0,8 UV-I 287 W/m 15,4 km/h (3 Bft)
08.05.2013 10:26 13,9 C 15,1 C 99 % 1010,8 hPa 0,0 l/m 2 min 0 min 1,2 UV-I 483 W/m 10,3 km/h (2 Bft)
08.05.2013 10:28 14,0 C 16,2 C 99 % 1010,8 hPa 0,0 l/m 2 min 0 min 1,4 UV-I 571 W/m 7,7 km/h (2 Bft)
08.05.2013 10:30 14,1 C 17,3 C 99 % 1010,9 hPa 0,0 l/m 2 min 0 min 1,5 UV-I 596 W/m 18,0 km/h (3 Bft)
08.05.2013 10:32 14,3 C 17,3 C 99 % 1010,8 hPa 0,0 l/m 2 min 0 min 1,5 UV-I 582 W/m 10,3 km/h (2 Bft)
08.05.2013 10:34 14,5 C 17,9 C 99 % 1010,8 hPa 0,0 l/m 2 min 0 min 1,6 UV-I 462 W/m 12,9 km/h (3 Bft)
08.05.2013 10:36 14,7 C 17,9 C 99 % 1010,8 hPa 0,0 l/m 2 min 0 min 1,5 UV-I 566 W/m 15,4 km/h (3 Bft)
08.05.2013 10:38 14,8 C 18,4 C 100 % 1010,9 hPa 0,0 l/m 2 min 0 min 1,5 UV-I 573 W/m 20,6 km/h (4 Bft)
08.05.2013 10:40 14,9 C 19,0 C 99 % 1010,8 hPa 0,0 l/m 2 min 0 min 1,6 UV-I 580 W/m 12,9 km/h (3 Bft)
08.05.2013 10:42 15,1 C 20,1 C 100 % 1010,8 hPa 0,0 l/m 2 min 0 min 1,6 UV-I 584 W/m 18,0 km/h (3 Bft)
08.05.2013 10:44 15,3 C 20,1 C 99 % 1010,8 hPa 0,0 l/m 2 min 0 min 1,5 UV-I 485 W/m 10,3 km/h (2 Bft)
08.05.2013 10:46 15,4 C 20,1 C 99 % 1010,8 hPa 0,0 l/m 2 min 0 min 1,5 UV-I 561 W/m 10,3 km/h (2 Bft)
08.05.2013 10:48 15,6 C 19,6 C 99 % 1010,8 hPa 0,0 l/m 2 min 0 min 1,2 UV-I 506 W/m 15,4 km/h (3 Bft)
08.05.2013 10:50 15,7 C 18,4 C 99 % 1010,8 hPa 0,0 l/m 0 min 0 min 1,0 UV-I 292 W/m 15,4 km/h (3 Bft)
08.05.2013 10:52 15,7 C 17,9 C 99 % 1010,9 hPa 0,0 l/m 0 min 0 min 1,7 UV-I 292 W/m 15,4 km/h (3 Bft)
08.05.2013 10:54 16,1 C 19,6 C 99 % 1010,8 hPa 0,0 l/m 2 min 0 min 1,8 UV-I 612 W/m 10,3 km/h (2 Bft)
08.05.2013 10:56 16,4 C 20,1 C 99 % 1010,8 hPa 0,0 l/m 2 min 0 min 1,8 UV-I 592 W/m 18,0 km/h (3 Bft)
08.05.2013 10:58 16,7 C 20,7 C 98 % 1010,7 hPa 0,0 l/m 2 min 0 min 1,8 UV-I 631 W/m 15,4 km/h (3 Bft)
08.05.2013 11:00 16,9 C 21,2 C 96 % 1010,7 hPa 0,0 l/m 2 min 0 min 1,9 UV-I 654 W/m 12,9 km/h (3 Bft)
08.05.2013 11:02 17,1 C 21,2 C 94 % 1010,7 hPa 0,0 l/m 2 min 0 min 1,8 UV-I 615 W/m 15,4 km/h (3 Bft)
08.05.2013 11:04 17,2 C 19,6 C 90 % 1010,7 hPa 0,0 l/m 0 min 0 min 1,5 UV-I 367 W/m 15,4 km/h (3 Bft)
08.05.2013 11:06 17,3 C 19,6 C 90 % 1010,8 hPa 0,0 l/m 2 min 0 min 1,6 UV-I 489 W/m 10,3 km/h (2 Bft)
08.05.2013 11:08 17,3 C 19,6 C 89 % 1010,8 hPa 0,0 l/m 2 min 0 min 1,6 UV-I 448 W/m 7,7 km/h (2 Bft)
08.05.2013 11:10 17,4 C 19,6 C 89 % 1010,7 hPa 0,0 l/m 2 min 0 min 2,0 UV-I 483 W/m 12,9 km/h (3 Bft)
08.05.2013 11:12 17,6 C 20,7 C 88 % 1010,7 hPa 0,0 l/m 2 min 0 min 2,2 UV-I 483 W/m 18,0 km/h (3 Bft)
08.05.2013 11:14 17,8 C 21,2 C 88 % 1010,6 hPa 0,0 l/m 2 min 0 min 1,9 UV-I 758 W/m 10,3 km/h (2 Bft)
08.05.2013 11:16 17,9 C 20,7 C 87 % 1010,6 hPa 0,0 l/m 2 min 0 min 1,6 UV-I 758 W/m 12,9 km/h (3 Bft)
08.05.2013 11:18 17,8 C 19,6 C 86 % 1010,7 hPa 0,0 l/m 0 min 0 min 1,4 UV-I 362 W/m 15,4 km/h (3 Bft)
08.05.2013 11:20 17,8 C 19,6 C 86 % 1010,7 hPa 0,0 l/m 2 min 0 min 2,2 UV-I 418 W/m 7,7 km/h (2 Bft)
08.05.2013 11:22 17,8 C 20,1 C 86 % 1010,7 hPa 0,0 l/m 2 min 0 min 2,4 UV-I 766 W/m 10,3 km/h (2 Bft)
08.05.2013 11:24 17,8 C 20,7 C 85 % 1010,6 hPa 0,0 l/m 2 min 0 min 2,4 UV-I 724 W/m 2,6 km/h (1 Bft)
08.05.2013 11:26 18,1 C 21,2 C 85 % 1010,6 hPa 0,0 l/m 2 min 0 min 2,3 UV-I 661 W/m 2,6 km/h (1 Bft)
08.05.2013 11:28 18,3 C 21,2 C 84 % 1010,7 hPa 0,0 l/m 2 min 0 min 2,3 UV-I 673 W/m 7,7 km/h (2 Bft)
08.05.2013 11:30 18,4 C 20,1 C 83 % 1010,5 hPa 0,0 l/m 2 min 0 min 2,4 UV-I 712 W/m 12,9 km/h (3 Bft)
08.05.2013 11:32 18,4 C 19,6 C 82 % 1010,5 hPa 0,0 l/m 2 min 0 min 2,4 UV-I 717 W/m 18,0 km/h (3 Bft)
08.05.2013 11:34 18,4 C 19,6 C 82 % 1010,5 hPa 0,0 l/m 2 min 0 min 2,1 UV-I 661 W/m 23,2 km/h (4 Bft)
08.05.2013 11:36 18,4 C 19,6 C 83 % 1010,5 hPa 0,0 l/m 2 min 0 min 2,2 UV-I 441 W/m 18,0 km/h (3 Bft)
08.05.2013 11:38 18,5 C 20,1 C 83 % 1010,5 hPa 0,0 l/m 2 min 0 min 2,6 UV-I 691 W/m 18,0 km/h (3 Bft)
08.05.2013 11:40 18,6 C 20,7 C 82 % 1010,4 hPa 0,0 l/m 2 min 0 min 2,5 UV-I 668 W/m 15,4 km/h (3 Bft)
08.05.2013 11:42 18,7 C 21,8 C 82 % 1010,5 hPa 0,0 l/m 2 min 0 min 2,7 UV-I 694 W/m 12,9 km/h (3 Bft)
08.05.2013 11:44 18,8 C 22,3 C 81 % 1010,5 hPa 0,0 l/m 2 min 0 min 2,6 UV-I 687 W/m 10,3 km/h (2 Bft)
08.05.2013 11:46 18,9 C 22,9 C 81 % 1010,4 hPa 0,0 l/m 2 min 0 min 2,7 UV-I 691 W/m 10,3 km/h (2 Bft)
08.05.2013 11:48 18,8 C 22,3 C 79 % 1010,5 hPa 0,0 l/m 2 min 0 min 2,7 UV-I 696 W/m 15,4 km/h (3 Bft)
08.05.2013 11:50 18,8 C 22,3 C 81 % 1010,5 hPa 0,0 l/m 2 min 0 min 2,7 UV-I 705 W/m 10,3 km/h (2 Bft)
08.05.2013 11:52 18,9 C 22,3 C 80 % 1010,5 hPa 0,0 l/m 2 min 0 min 2,6 UV-I 694 W/m 10,3 km/h (2 Bft)
08.05.2013 11:54 18,9 C 21,8 C 79 % 1010,5 hPa 0,0 l/m 2 min 0 min 2,7 UV-I 682 W/m 10,3 km/h (2 Bft)
08.05.2013 11:56 19,1 C 22,9 C 80 % 1010,4 hPa 0,0 l/m 2 min 0 min 2,7 UV-I 698 W/m 2,6 km/h (1 Bft)
08.05.2013 11:58 19,2 C 23,4 C 80 % 1010,4 hPa 0,0 l/m 2 min 0 min 2,8 UV-I 705 W/m 10,3 km/h (2 Bft)
08.05.2013 12:00 19,4 C 24,0 C 80 % 1010,4 hPa 0,0 l/m 2 min 0 min 2,8 UV-I 721 W/m 7,7 km/h (2 Bft)
08.05.2013 12:02 19,3 C 24,0 C 79 % 1010,4 hPa 0,0 l/m 2 min 0 min 2,8 UV-I 710 W/m 12,9 km/h (3 Bft)
08.05.2013 12:04 19,7 C 24,0 C 81 % 1010,3 hPa 0,0 l/m 2 min 0 min 2,7 UV-I 712 W/m 18,0 km/h (3 Bft)
08.05.2013 12:06 19,8 C 24,6 C 80 % 1010,4 hPa 0,0 l/m 2 min 0 min 2,7 UV-I 687 W/m 15,4 km/h (3 Bft)
08.05.2013 12:08 19,9 C 25,1 C 79 % 1010,3 hPa 0,0 l/m 2 min 0 min 2,9 UV-I 738 W/m 0,0 km/h (0 Bft)
08.05.2013 12:10 20,2 C 24,6 C 80 % 1010,3 hPa 0,0 l/m 2 min 0 min 1,9 UV-I 754 W/m 7,7 km/h (2 Bft)
08.05.2013 12:12 20,2 C 24,6 C 78 % 1010,3 hPa 0,0 l/m 2 min 0 min 2,9 UV-I 809 W/m 25,7 km/h (4 Bft)
08.05.2013 12:14 20,3 C 24,6 C 78 % 1010,2 hPa 0,0 l/m 2 min 0 min 2,4 UV-I 756 W/m 18,0 km/h (3 Bft)
08.05.2013 12:16 20,3 C 24,0 C 77 % 1010,3 hPa 0,0 l/m 2 min 0 min 2,7 UV-I 756 W/m 18,0 km/h (3 Bft)
08.05.2013 12:18 20,2 C 23,4 C 76 % 1010,3 hPa 0,0 l/m 0 min 0 min 2,0 UV-I 373 W/m 10,3 km/h (2 Bft)
08.05.2013 12:20 20,2 C 23,4 C 77 % 1010,3 hPa 0,0 l/m 2 min 0 min 2,2 UV-I 687 W/m 5,1 km/h (1 Bft)
08.05.2013 12:22 20,4 C 24,6 C 78 % 1010,3 hPa 0,0 l/m 2 min 0 min 2,8 UV-I 752 W/m 12,9 km/h (3 Bft)
08.05.2013 12:24 20,6 C 24,6 C 78 % 1010,3 hPa 0,0 l/m 2 min 0 min 3,0 UV-I 830 W/m 10,3 km/h (2 Bft)
08.05.2013 12:26 20,7 C 25,1 C 78 % 1010,2 hPa 0,0 l/m 2 min 0 min 2,7 UV-I 756 W/m 7,7 km/h (2 Bft)
08.05.2013 12:28 20,8 C 24,0 C 77 % 1010,2 hPa 0,0 l/m 0 min 0 min 1,9 UV-I 334 W/m 20,6 km/h (4 Bft)
08.05.2013 12:30 20,6 C 23,4 C 72 % 1010,1 hPa 0,0 l/m 2 min 0 min 2,5 UV-I 677 W/m 15,4 km/h (3 Bft)
08.05.2013 12:32 20,4 C 22,9 C 72 % 1010,2 hPa 0,0 l/m 2 min 0 min 1,7 UV-I 684 W/m 7,7 km/h (2 Bft)
08.05.2013 12:34 20,4 C 21,8 C 72 % 1010,2 hPa 0,0 l/m 0 min 0 min 2,0 UV-I 367 W/m 15,4 km/h (3 Bft)
08.05.2013 12:36 20,3 C 22,3 C 73 % 1010,3 hPa 0,0 l/m 2 min 0 min 2,6 UV-I 737 W/m 18,0 km/h (3 Bft)
08.05.2013 12:38 20,3 C 22,9 C 72 % 1010,2 hPa 0,0 l/m 2 min 0 min 2,0 UV-I 722 W/m 7,7 km/h (2 Bft)
08.05.2013 12:40 20,4 C 22,9 C 74 % 1010,2 hPa 0,0 l/m 0 min 0 min 2,0 UV-I 408 W/m 5,1 km/h (1 Bft)
08.05.2013 12:42 20,5 C 21,8 C 73 % 1010,2 hPa 0,0 l/m 0 min 0 min 1,7 UV-I 313 W/m 5,1 km/h (1 Bft)
08.05.2013 12:44 20,4 C 21,8 C 72 % 1010,1 hPa 0,0 l/m 0 min 0 min 3,1 UV-I 339 W/m 7,7 km/h (2 Bft)
08.05.2013 12:46 20,7 C 23,4 C 75 % 1010,1 hPa 0,0 l/m 2 min 0 min 3,0 UV-I 747 W/m 12,9 km/h (3 Bft)
08.05.2013 12:48 20,8 C 23,4 C 74 % 1010,0 hPa 0,0 l/m 2 min 0 min 1,8 UV-I 747 W/m 2,6 km/h (1 Bft)
08.05.2013 12:50 20,8 C 22,3 C 72 % 1009,9 hPa 0,0 l/m 0 min 0 min 1,5 UV-I 246 W/m 5,1 km/h (1 Bft)
08.05.2013 12:52 20,7 C 21,2 C 71 % 1010,0 hPa 0,0 l/m 0 min 0 min 1,5 UV-I 264 W/m 12,9 km/h (3 Bft)
08.05.2013 12:54 20,4 C 20,1 C 71 % 1010,0 hPa 0,0 l/m 0 min 0 min 1,5 UV-I 243 W/m 7,7 km/h (2 Bft)
08.05.2013 12:56 20,3 C 20,1 C 71 % 1009,9 hPa 0,0 l/m 0 min 0 min 1,5 UV-I 279 W/m 7,7 km/h (2 Bft)
08.05.2013 12:58 20,2 C 20,1 C 72 % 1010,0 hPa 0,0 l/m 0 min 0 min 1,5 UV-I 309 W/m 7,7 km/h (2 Bft)
08.05.2013 13:00 20,2 C 20,7 C 71 % 1010,0 hPa 0,0 l/m 2 min 0 min 2,1 UV-I 661 W/m 7,7 km/h (2 Bft)
08.05.2013 13:02 20,4 C 21,8 C 71 % 1010,0 hPa 0,0 l/m 2 min 0 min 2,3 UV-I 761 W/m 7,7 km/h (2 Bft)
08.05.2013 13:04 20,7 C 22,3 C 71 % 1009,9 hPa 0,0 l/m 0 min 0 min 2,3 UV-I 425 W/m 10,3 km/h (2 Bft)
08.05.2013 13:06 20,8 C 22,3 C 71 % 1009,8 hPa 0,0 l/m 0 min 0 min 1,9 UV-I 425 W/m 23,2 km/h (4 Bft)
08.05.2013 13:08 20,9 C 22,3 C 70 % 1009,8 hPa 0,0 l/m 2 min 0 min 1,9 UV-I 624 W/m 2,6 km/h (1 Bft)
08.05.2013 13:10 21,2 C 22,9 C 71 % 1009,9 hPa 0,0 l/m 2 min 0 min 1,8 UV-I 656 W/m 0,0 km/h (0 Bft)
08.05.2013 13:12 21,2 C 22,3 C 69 % 1009,9 hPa 0,0 l/m 2 min 0 min 1,3 UV-I 656 W/m 10,3 km/h (2 Bft)
08.05.2013 13:14 21,2 C 21,8 C 69 % 1009,9 hPa 0,0 l/m 0 min 0 min 1,1 UV-I 176 W/m 10,3 km/h (2 Bft)
08.05.2013 13:16 21,0 C 20,7 C 68 % 1009,8 hPa 0,0 l/m 0 min 0 min 1,0 UV-I 171 W/m 10,3 km/h (2 Bft)
08.05.2013 13:18 20,8 C 20,1 C 68 % 1009,9 hPa 0,0 l/m 0 min 0 min 1,2 UV-I 211 W/m 7,7 km/h (2 Bft)
08.05.2013 13:20 20,6 C 19,6 C 68 % 1010,0 hPa 0,0 l/m 0 min 0 min 1,4 UV-I 236 W/m 15,4 km/h (3 Bft)
08.05.2013 13:22 20,5 C 20,1 C 67 % 1009,9 hPa 0,0 l/m 0 min 0 min 2,0 UV-I 236 W/m 12,9 km/h (3 Bft)
08.05.2013 13:24 20,5 C 20,7 C 67 % 1009,8 hPa 0,0 l/m 0 min 0 min 2,2 UV-I 236 W/m 15,4 km/h (3 Bft)
08.05.2013 13:26 20,8 C 22,9 C 67 % 1009,8 hPa 0,0 l/m 2 min 0 min 2,5 UV-I 867 W/m 20,6 km/h (4 Bft)
08.05.2013 13:28 21,1 C 23,4 C 66 % 1009,8 hPa 0,0 l/m 0 min 0 min 2,2 UV-I 373 W/m 10,3 km/h (2 Bft)
08.05.2013 13:30 21,2 C 22,3 C 65 % 1009,8 hPa 0,0 l/m 0 min 0 min 1,8 UV-I 373 W/m 12,9 km/h (3 Bft)
08.05.2013 13:32 21,2 C 21,8 C 65 % 1009,9 hPa 0,0 l/m 0 min 0 min 1,8 UV-I 287 W/m 7,7 km/h (2 Bft)
08.05.2013 13:34 21,1 C 21,8 C 65 % 1009,8 hPa 0,0 l/m 0 min 0 min 1,7 UV-I 290 W/m 10,3 km/h (2 Bft)
08.05.2013 13:36 21,2 C 22,3 C 66 % 1009,8 hPa 0,0 l/m 0 min 0 min 2,2 UV-I 348 W/m 0,0 km/h (0 Bft)
08.05.2013 13:38 21,4 C 23,4 C 66 % 1009,8 hPa 0,0 l/m 2 min 0 min 2,7 UV-I 844 W/m 2,6 km/h (1 Bft)
08.05.2013 13:40 21,7 C 24,0 C 65 % 1009,8 hPa 0,0 l/m 2 min 0 min 3,0 UV-I 877 W/m 7,7 km/h (2 Bft)
08.05.2013 13:42 22,0 C 24,0 C 62 % 1009,8 hPa 0,0 l/m 2 min 0 min 2,8 UV-I 789 W/m 15,4 km/h (3 Bft)
08.05.2013 13:44 22,2 C 23,4 C 61 % 1009,8 hPa 0,0 l/m 2 min 0 min 2,8 UV-I 689 W/m 20,6 km/h (4 Bft)
08.05.2013 13:46 22,3 C 22,9 C 62 % 1009,5 hPa 0,0 l/m 2 min 0 min 2,9 UV-I 860 W/m 12,9 km/h (3 Bft)
08.05.2013 13:48 22,2 C 22,9 C 63 % 1009,7 hPa 0,0 l/m 2 min 0 min 2,6 UV-I 740 W/m 18,0 km/h (3 Bft)
08.05.2013 13:50 22,2 C 22,9 C 63 % 1009,7 hPa 0,0 l/m 2 min 0 min 2,3 UV-I 541 W/m 5,1 km/h (1 Bft)
08.05.2013 13:52 22,2 C 22,3 C 61 % 1009,7 hPa 0,0 l/m 0 min 0 min 2,1 UV-I 439 W/m 23,2 km/h (4 Bft)
08.05.2013 13:54 22,1 C 21,8 C 60 % 1009,7 hPa 0,0 l/m 0 min 0 min 1,5 UV-I 439 W/m 15,4 km/h (3 Bft)
08.05.2013 13:56 21,8 C 21,2 C 61 % 1009,5 hPa 0,0 l/m 0 min 0 min 1,5 UV-I 343 W/m 7,7 km/h (2 Bft)
08.05.2013 13:58 21,7 C 21,2 C 61 % 1009,5 hPa 0,0 l/m 0 min 0 min 2,0 UV-I 348 W/m 2,6 km/h (1 Bft)
08.05.2013 14:00 21,7 C 21,2 C 61 % 1009,5 hPa 0,0 l/m 2 min 0 min 2,3 UV-I 563 W/m 12,9 km/h (3 Bft)
08.05.2013 14:02 21,7 C 21,8 C 61 % 1009,5 hPa 0,0 l/m 2 min 0 min 2,6 UV-I 515 W/m 12,9 km/h (3 Bft)
08.05.2013 14:04 21,7 C 21,8 C 62 % 1009,5 hPa 0,0 l/m 0 min 0 min 1,9 UV-I 397 W/m 10,3 km/h (2 Bft)
08.05.2013 14:06 21,7 C 21,2 C 61 % 1009,5 hPa 0,0 l/m 0 min 0 min 1,8 UV-I 383 W/m 12,9 km/h (3 Bft)
08.05.2013 14:08 21,8 C 21,8 C 61 % 1009,5 hPa 0,0 l/m 2 min 0 min 2,0 UV-I 489 W/m 12,9 km/h (3 Bft)
08.05.2013 14:10 21,8 C 21,2 C 60 % 1009,5 hPa 0,0 l/m 2 min 0 min 2,0 UV-I 483 W/m 12,9 km/h (3 Bft)
08.05.2013 14:12 21,8 C 21,2 C 59 % 1009,5 hPa 0,0 l/m 0 min 0 min 1,7 UV-I 406 W/m 23,2 km/h (4 Bft)
08.05.2013 14:14 21,7 C 21,2 C 60 % 1009,5 hPa 0,0 l/m 0 min 0 min 1,6 UV-I 404 W/m 15,4 km/h (3 Bft)
08.05.2013 14:16 21,7 C 21,8 C 61 % 1009,5 hPa 0,0 l/m 2 min 0 min 1,9 UV-I 446 W/m 12,9 km/h (3 Bft)
08.05.2013 14:18 21,7 C 21,8 C 58 % 1009,5 hPa 0,0 l/m 2 min 0 min 2,4 UV-I 533 W/m 15,4 km/h (3 Bft)
08.05.2013 14:20 21,8 C 21,8 C 60 % 1009,5 hPa 0,0 l/m 2 min 0 min 2,5 UV-I 608 W/m 12,9 km/h (3 Bft)
08.05.2013 14:22 21,9 C 21,8 C 59 % 1009,4 hPa 0,0 l/m 2 min 0 min 3,5 UV-I 512 W/m 10,3 km/h (2 Bft)
08.05.2013 14:24 22,1 C 22,3 C 59 % 1009,4 hPa 0,0 l/m 2 min 0 min 3,9 UV-I 512 W/m 20,6 km/h (4 Bft)
08.05.2013 14:26 22,4 C 22,9 C 60 % 1009,3 hPa 0,0 l/m 2 min 0 min 4,1 UV-I 953 W/m 7,7 km/h (2 Bft)
08.05.2013 14:28 22,8 C 23,4 C 58 % 1009,3 hPa 0,0 l/m 2 min 0 min 3,5 UV-I 812 W/m 10,3 km/h (2 Bft)
08.05.2013 14:30 22,9 C 22,9 C 56 % 1009,4 hPa 0,0 l/m 0 min 0 min 1,8 UV-I 297 W/m 12,9 km/h (3 Bft)
08.05.2013 14:32 22,7 C 21,8 C 56 % 1009,6 hPa 0,0 l/m 0 min 0 min 1,7 UV-I 269 W/m 25,7 km/h (4 Bft)
08.05.2013 14:34 22,4 C 21,8 C 56 % 1009,4 hPa 0,0 l/m 0 min 0 min 2,0 UV-I 315 W/m 10,3 km/h (2 Bft)
08.05.2013 14:36 22,3 C 21,8 C 57 % 1009,4 hPa 0,0 l/m 0 min 0 min 2,7 UV-I 357 W/m 10,3 km/h (2 Bft)
08.05.2013 14:38 22,3 C 21,8 C 57 % 1009,4 hPa 0,0 l/m 2 min 0 min 2,9 UV-I 650 W/m 10,3 km/h (2 Bft)
08.05.2013 14:40 22,6 C 22,3 C 58 % 1009,4 hPa 0,0 l/m 2 min 0 min 2,9 UV-I 647 W/m 10,3 km/h (2 Bft)
08.05.2013 14:42 22,8 C 22,3 C 56 % 1009,3 hPa 0,0 l/m 2 min 0 min 2,5 UV-I 517 W/m 12,9 km/h (3 Bft)
08.05.2013 14:44 22,8 C 22,3 C 55 % 1009,2 hPa 0,0 l/m 0 min 0 min 2,2 UV-I 380 W/m 18,0 km/h (3 Bft)
08.05.2013 14:46 22,6 C 21,8 C 54 % 1009,4 hPa 0,0 l/m 0 min 0 min 1,8 UV-I 352 W/m 18,0 km/h (3 Bft)
08.05.2013 14:48 22,3 C 21,8 C 56 % 1009,3 hPa 0,0 l/m 2 min 0 min 2,2 UV-I 436 W/m 15,4 km/h (3 Bft)
08.05.2013 14:50 22,2 C 21,8 C 54 % 1009,4 hPa 0,0 l/m 0 min 0 min 1,7 UV-I 359 W/m 20,6 km/h (4 Bft)
08.05.2013 14:52 22,0 C 21,2 C 54 % 1009,4 hPa 0,0 l/m 0 min 0 min 1,6 UV-I 322 W/m 18,0 km/h (3 Bft)
08.05.2013 14:54 21,8 C 21,2 C 54 % 1009,5 hPa 0,0 l/m 0 min 0 min 1,4 UV-I 288 W/m 20,6 km/h (4 Bft)
08.05.2013 14:56 21,7 C 20,7 C 55 % 1009,4 hPa 0,0 l/m 0 min 0 min 1,2 UV-I 257 W/m 2,6 km/h (1 Bft)
08.05.2013 14:58 21,7 C 20,7 C 54 % 1009,3 hPa 0,0 l/m 0 min 0 min 1,1 UV-I 246 W/m 12,9 km/h (3 Bft)
08.05.2013 15:00 21,6 C 20,7 C 55 % 1009,3 hPa 0,0 l/m 0 min 0 min 1,0 UV-I 234 W/m 10,3 km/h (2 Bft)
08.05.2013 15:02 21,5 C 20,1 C 56 % 1009,2 hPa 0,0 l/m 0 min 0 min 0,8 UV-I 218 W/m 12,9 km/h (3 Bft)
08.05.2013 15:04 21,4 C 20,1 C 56 % 1009,3 hPa 0,0 l/m 0 min 0 min 0,8 UV-I 209 W/m 2,6 km/h (1 Bft)
08.05.2013 15:06 21,3 C 20,1 C 56 % 1009,2 hPa 0,0 l/m 0 min 0 min 0,8 UV-I 218 W/m 12,9 km/h (3 Bft)
08.05.2013 15:08 21,2 C 20,1 C 56 % 1009,2 hPa 0,0 l/m 0 min 0 min 0,9 UV-I 239 W/m 15,4 km/h (3 Bft)
08.05.2013 15:10 21,2 C 20,1 C 57 % 1009,2 hPa 0,0 l/m 0 min 0 min 1,0 UV-I 248 W/m 7,7 km/h (2 Bft)
08.05.2013 15:12 21,1 C 20,1 C 57 % 1009,2 hPa 0,0 l/m 0 min 0 min 1,0 UV-I 250 W/m 2,6 km/h (1 Bft)
08.05.2013 15:14 21,2 C 20,1 C 58 % 1009,2 hPa 0,0 l/m 0 min 0 min 0,9 UV-I 241 W/m 10,3 km/h (2 Bft)
08.05.2013 15:16 21,2 C 20,1 C 57 % 1009,2 hPa 0,0 l/m 0 min 0 min 0,8 UV-I 234 W/m 5,1 km/h (1 Bft)
08.05.2013 15:18 21,1 C 20,1 C 58 % 1009,2 hPa 0,0 l/m 0 min 0 min 0,8 UV-I 230 W/m 5,1 km/h (1 Bft)
08.05.2013 15:20 21,2 C 20,1 C 58 % 1009,1 hPa 0,0 l/m 0 min 0 min 0,8 UV-I 230 W/m 10,3 km/h (2 Bft)
08.05.2013 15:22 21,2 C 20,1 C 59 % 1009,1 hPa 0,0 l/m 0 min 0 min 0,8 UV-I 232 W/m 5,1 km/h (1 Bft)
08.05.2013 15:24 21,2 C 20,1 C 59 % 1009,2 hPa 0,0 l/m 0 min 0 min 0,8 UV-I 216 W/m 2,6 km/h (1 Bft)
08.05.2013 15:26 21,2 C 20,1 C 59 % 1009,2 hPa 0,0 l/m 0 min 0 min 0,6 UV-I 190 W/m 2,6 km/h (1 Bft)
08.05.2013 15:28 21,2 C 20,1 C 59 % 1009,1 hPa 0,0 l/m 0 min 0 min 0,0 UV-I 162 W/m 0,0 km/h (0 Bft)
08.05.2013 15:30 21,2 C 20,1 C 59 % 1009,2 hPa 0,0 l/m 0 min 2 min 0,0 UV-I 111 W/m 15,4 km/h (3 Bft)
08.05.2013 15:32 21,1 C 19,6 C 60 % 1009,5 hPa 0,0 l/m 0 min 2 min 0,0 UV-I 84 W/m 36,0 km/h (5 Bft)
08.05.2013 15:34 20,8 C 18,4 C 65 % 1009,8 hPa 0,0 l/m 0 min 2 min 0,0 UV-I 79 W/m 20,6 km/h (4 Bft)
08.05.2013 15:36 20,2 C 16,8 C 68 % 1010,0 hPa 0,0 l/m 0 min 2 min 0,0 UV-I 79 W/m 28,3 km/h (4 Bft)
08.05.2013 15:38 19,5 C 15,1 C 71 % 1010,0 hPa 0,0 l/m 0 min 2 min 0,0 UV-I 76 W/m 18,0 km/h (3 Bft)
08.05.2013 15:40 18,8 C 14,6 C 75 % 1010,0 hPa 0,0 l/m 0 min 2 min 0,0 UV-I 79 W/m 15,4 km/h (3 Bft)
08.05.2013 15:42 18,4 C 14,6 C 77 % 1010,0 hPa 0,2 l/m 0 min 2 min 0,0 UV-I 97 W/m 12,9 km/h (3 Bft)
08.05.2013 15:44 18,2 C 14,6 C 78 % 1010,1 hPa 0,0 l/m 0 min 2 min 0,0 UV-I 105 W/m 15,4 km/h (3 Bft)
08.05.2013 15:46 18,1 C 14,0 C 79 % 1010,1 hPa 0,0 l/m 0 min 2 min 0,0 UV-I 111 W/m 18,0 km/h (3 Bft)
08.05.2013 15:48 17,9 C 14,0 C 81 % 1010,0 hPa 0,0 l/m 0 min 2 min 0,0 UV-I 116 W/m 5,1 km/h (1 Bft)
08.05.2013 15:50 17,8 C 14,0 C 81 % 1010,0 hPa 0,0 l/m 0 min 2 min 0,0 UV-I 121 W/m 7,7 km/h (2 Bft)
08.05.2013 15:52 17,7 C 14,0 C 81 % 1010,0 hPa 0,0 l/m 0 min 2 min 0,0 UV-I 121 W/m 20,6 km/h (4 Bft)
08.05.2013 15:54 17,6 C 14,6 C 82 % 1010,0 hPa 0,0 l/m 0 min 2 min 0,0 UV-I 127 W/m 5,1 km/h (1 Bft)
08.05.2013 15:56 17,6 C 14,6 C 83 % 1009,9 hPa 0,0 l/m 0 min 2 min 0,0 UV-I 132 W/m 7,7 km/h (2 Bft)
08.05.2013 15:58 17,5 C 14,6 C 84 % 1009,9 hPa 0,0 l/m 0 min 2 min 0,0 UV-I 128 W/m 2,6 km/h (1 Bft)
08.05.2013 16:00 17,4 C 14,6 C 84 % 1009,9 hPa 0,0 l/m 0 min 2 min 0,0 UV-I 121 W/m 7,7 km/h (2 Bft)
08.05.2013 16:02 17,3 C 14,6 C 84 % 1010,0 hPa 0,0 l/m 0 min 2 min 0,0 UV-I 121 W/m 5,1 km/h (1 Bft)
08.05.2013 16:04 17,3 C 14,6 C 85 % 1010,0 hPa 0,0 l/m 0 min 2 min 0,0 UV-I 125 W/m 7,7 km/h (2 Bft)
08.05.2013 16:06 17,3 C 14,6 C 85 % 1010,0 hPa 0,2 l/m 0 min 2 min 0,0 UV-I 130 W/m 5,1 km/h (1 Bft)
08.05.2013 16:08 17,3 C 14,6 C 85 % 1009,9 hPa 0,0 l/m 0 min 2 min 0,0 UV-I 134 W/m 0,0 km/h (0 Bft)
08.05.2013 16:10 17,2 C 14,6 C 85 % 1009,9 hPa 0,0 l/m 0 min 2 min 0,0 UV-I 127 W/m 2,6 km/h (1 Bft)
08.05.2013 16:12 17,2 C 14,6 C 86 % 1009,9 hPa 0,0 l/m 0 min 2 min 0,0 UV-I 107 W/m 0,0 km/h (0 Bft)
08.05.2013 16:14 17,2 C 14,6 C 86 % 1009,9 hPa 0,0 l/m 0 min 2 min 0,0 UV-I 97 W/m 0,0 km/h (0 Bft)
08.05.2013 16:16 17,2 C 14,6 C 86 % 1009,8 hPa 0,0 l/m 0 min 2 min 0,0 UV-I 95 W/m 2,6 km/h (1 Bft)
08.05.2013 16:18 17,2 C 14,6 C 86 % 1009,9 hPa 0,0 l/m 0 min 2 min 0,0 UV-I 97 W/m 0,0 km/h (0 Bft)
08.05.2013 16:20 17,2 C 14,6 C 86 % 1009,9 hPa 0,0 l/m 0 min 2 min 0,0 UV-I 98 W/m 0,0 km/h (0 Bft)
08.05.2013 16:22 17,2 C 14,6 C 87 % 1009,9 hPa 0,0 l/m 0 min 2 min 0,0 UV-I 100 W/m 0,0 km/h (0 Bft)
08.05.2013 16:24 17,2 C 14,6 C 87 % 1009,9 hPa 0,0 l/m 0 min 2 min 0,0 UV-I 102 W/m 0,0 km/h (0 Bft)
08.05.2013 16:26 17,2 C 14,6 C 87 % 1009,9 hPa 0,2 l/m 0 min 2 min 0,0 UV-I 104 W/m 0,0 km/h (0 Bft)
08.05.2013 16:28 17,2 C 14,6 C 87 % 1009,9 hPa 0,0 l/m 0 min 2 min 0,0 UV-I 105 W/m 0,0 km/h (0 Bft)
08.05.2013 16:30 17,2 C 15,1 C 87 % 1009,8 hPa 0,0 l/m 0 min 2 min 0,0 UV-I 116 W/m 2,6 km/h (1 Bft)
08.05.2013 16:32 17,2 C 15,1 C 87 % 1009,8 hPa 0,0 l/m 0 min 2 min 0,0 UV-I 125 W/m 0,0 km/h (0 Bft)
08.05.2013 16:34 17,2 C 15,1 C 88 % 1009,8 hPa 0,0 l/m 0 min 2 min 0,0 UV-I 128 W/m 0,0 km/h (0 Bft)
08.05.2013 16:36 17,2 C 15,1 C 88 % 1009,7 hPa 0,0 l/m 0 min 2 min 0,0 UV-I 141 W/m 0,0 km/h (0 Bft)
08.05.2013 16:38 17,3 C 15,7 C 89 % 1009,8 hPa 0,0 l/m 0 min 2 min 0,0 UV-I 162 W/m 0,0 km/h (0 Bft)
08.05.2013 16:40 17,2 C 15,7 C 90 % 1009,7 hPa 0,0 l/m 0 min 2 min 0,0 UV-I 195 W/m 0,0 km/h (0 Bft)
08.05.2013 16:42 17,2 C 15,7 C 90 % 1009,5 hPa 0,0 l/m 0 min 2 min 0,0 UV-I 207 W/m 0,0 km/h (0 Bft)
08.05.2013 16:44 17,3 C 15,7 C 91 % 1009,5 hPa 0,0 l/m 0 min 2 min 0,0 UV-I 220 W/m 0,0 km/h (0 Bft)
08.05.2013 16:46 17,4 C 16,2 C 92 % 1009,5 hPa 0,0 l/m 0 min 0 min 0,0 UV-I 251 W/m 2,6 km/h (1 Bft)
08.05.2013 16:48 17,4 C 16,2 C 91 % 1009,5 hPa 0,0 l/m 0 min 2 min 0,0 UV-I 250 W/m 0,0 km/h (0 Bft)
08.05.2013 16:50 17,7 C 16,2 C 92 % 1009,5 hPa 0,0 l/m 0 min 2 min 0,0 UV-I 246 W/m 0,0 km/h (0 Bft)
08.05.2013 16:52 17,7 C 16,8 C 91 % 1009,6 hPa 0,0 l/m 0 min 0 min 0,5 UV-I 264 W/m 5,1 km/h (1 Bft)
08.05.2013 16:54 17,8 C 16,8 C 91 % 1009,5 hPa 0,0 l/m 0 min 0 min 0,5 UV-I 262 W/m 12,9 km/h (3 Bft)
08.05.2013 16:56 17,8 C 16,2 C 89 % 1009,4 hPa 0,0 l/m 0 min 0 min 0,6 UV-I 265 W/m 12,9 km/h (3 Bft)
08.05.2013 16:58 17,8 C 16,2 C 89 % 1009,4 hPa 0,0 l/m 0 min 0 min 0,6 UV-I 281 W/m 5,1 km/h (1 Bft)
08.05.2013 17:00 18,0 C 16,8 C 89 % 1009,4 hPa 0,0 l/m 0 min 0 min 0,6 UV-I 271 W/m 12,9 km/h (3 Bft)
08.05.2013 17:02 18,0 C 16,2 C 87 % 1009,3 hPa 0,0 l/m 0 min 2 min 0,5 UV-I 257 W/m 7,7 km/h (2 Bft)
08.05.2013 17:04 18,0 C 16,2 C 86 % 1009,4 hPa 0,0 l/m 0 min 0 min 0,0 UV-I 234 W/m 10,3 km/h (2 Bft)
08.05.2013 17:06 18,1 C 16,2 C 85 % 1009,3 hPa 0,0 l/m 0 min 0 min 0,0 UV-I 229 W/m 7,7 km/h (2 Bft)
08.05.2013 17:08 18,2 C 16,8 C 87 % 1009,3 hPa 0,0 l/m 0 min 2 min 0,0 UV-I 236 W/m 7,7 km/h (2 Bft)
08.05.2013 17:10 18,2 C 16,2 C 86 % 1009,3 hPa 0,0 l/m 0 min 2 min 0,0 UV-I 241 W/m 20,6 km/h (4 Bft)
08.05.2013 17:12 18,2 C 16,8 C 86 % 1009,3 hPa 0,0 l/m 0 min 2 min 0,0 UV-I 244 W/m 15,4 km/h (3 Bft)
08.05.2013 17:14 18,2 C 16,8 C 86 % 1009,3 hPa 0,0 l/m 0 min 0 min 0,0 UV-I 264 W/m 15,4 km/h (3 Bft)
08.05.2013 17:16 18,3 C 16,8 C 86 % 1009,3 hPa 0,0 l/m 0 min 0 min 0,5 UV-I 306 W/m 18,0 km/h (3 Bft)
08.05.2013 17:18 18,4 C 17,3 C 85 % 1009,3 hPa 0,0 l/m 2 min 2 min 0,6 UV-I 374 W/m 10,3 km/h (2 Bft)
08.05.2013 17:20 18,4 C 17,3 C 85 % 1009,2 hPa 0,0 l/m 0 min 0 min 0,5 UV-I 295 W/m 18,0 km/h (3 Bft)
08.05.2013 17:22 18,4 C 17,3 C 83 % 1009,3 hPa 0,0 l/m 0 min 0 min 0,5 UV-I 258 W/m 10,3 km/h (2 Bft)
08.05.2013 17:24 18,4 C 16,8 C 83 % 1009,3 hPa 0,0 l/m 0 min 0 min 0,0 UV-I 243 W/m 10,3 km/h (2 Bft)
08.05.2013 17:26 18,4 C 16,8 C 82 % 1009,2 hPa 0,0 l/m 0 min 0 min 0,0 UV-I 227 W/m 0,0 km/h (0 Bft)
08.05.2013 17:28 18,4 C 16,8 C 82 % 1009,1 hPa 0,0 l/m 0 min 0 min 0,0 UV-I 206 W/m 10,3 km/h (2 Bft)
08.05.2013 17:30 18,4 C 17,3 C 83 % 1009,2 hPa 0,0 l/m 0 min 0 min 0,0 UV-I 202 W/m 15,4 km/h (3 Bft)
08.05.2013 17:32 18,4 C 17,3 C 82 % 1009,2 hPa 0,0 l/m 0 min 0 min 0,0 UV-I 206 W/m 23,2 km/h (4 Bft)
08.05.2013 17:34 18,5 C 17,3 C 82 % 1009,2 hPa 0,0 l/m 0 min 0 min 0,0 UV-I 199 W/m 10,3 km/h (2 Bft)
08.05.2013 17:36 18,5 C 17,3 C 83 % 1009,2 hPa 0,0 l/m 0 min 0 min 0,0 UV-I 199 W/m 10,3 km/h (2 Bft)
08.05.2013 17:38 18,5 C 17,3 C 82 % 1009,2 hPa 0,0 l/m 0 min 0 min 0,0 UV-I 221 W/m 15,4 km/h (3 Bft)
08.05.2013 17:40 18,6 C 17,9 C 82 % 1009,1 hPa 0,0 l/m 0 min 0 min 0,0 UV-I 257 W/m 7,7 km/h (2 Bft)
08.05.2013 17:42 18,6 C 17,9 C 82 % 1009,1 hPa 0,0 l/m 0 min 0 min 0,0 UV-I 239 W/m 10,3 km/h (2 Bft)
08.05.2013 17:44 18,7 C 17,9 C 81 % 1009,1 hPa 0,0 l/m 0 min 0 min 0,0 UV-I 199 W/m 15,4 km/h (3 Bft)
08.05.2013 17:46 18,7 C 17,9 C 81 % 1009,1 hPa 0,0 l/m 0 min 0 min 0,0 UV-I 148 W/m 18,0 km/h (3 Bft)
08.05.2013 17:48 18,7 C 17,3 C 81 % 1009,0 hPa 0,0 l/m 0 min 2 min 0,0 UV-I 121 W/m 18,0 km/h (3 Bft)
08.05.2013 17:50 18,6 C 17,3 C 80 % 1009,0 hPa 0,0 l/m 0 min 0 min 0,0 UV-I 111 W/m 23,2 km/h (4 Bft)
08.05.2013 17:52 18,5 C 16,8 C 80 % 1009,0 hPa 0,0 l/m 0 min 0 min 0,0 UV-I 95 W/m 25,7 km/h (4 Bft)
08.05.2013 17:54 18,4 C 16,8 C 79 % 1009,0 hPa 0,0 l/m 0 min 0 min 0,0 UV-I 79 W/m 18,0 km/h (3 Bft)
08.05.2013 17:56 18,4 C 16,8 C 80 % 1009,0 hPa 0,0 l/m 0 min 0 min 0,0 UV-I 76 W/m 20,6 km/h (4 Bft)
08.05.2013 17:58 18,3 C 16,8 C 80 % 1009,1 hPa 0,0 l/m 0 min 0 min 0,0 UV-I 72 W/m 20,6 km/h (4 Bft)
08.05.2013 18:00 18,3 C 16,8 C 80 % 1009,1 hPa 0,0 l/m 0 min 0 min 0,0 UV-I 63 W/m 12,9 km/h (3 Bft)
08.05.2013 18:02 18,3 C 16,8 C 80 % 1009,1 hPa 0,0 l/m 0 min 0 min 0,0 UV-I 62 W/m 18,0 km/h (3 Bft)
08.05.2013 18:04 18,2 C 16,2 C 80 % 1009,0 hPa 0,0 l/m 0 min 0 min 0,0 UV-I 63 W/m 15,4 km/h (3 Bft)
08.05.2013 18:06 18,2 C 16,2 C 80 % 1009,0 hPa 0,0 l/m 0 min 0 min 0,0 UV-I 67 W/m 18,0 km/h (3 Bft)
08.05.2013 18:08 18,2 C 16,2 C 80 % 1009,0 hPa 0,0 l/m 0 min 2 min 0,0 UV-I 77 W/m 5,1 km/h (1 Bft)
08.05.2013 18:10 18,2 C 15,7 C 81 % 1009,0 hPa 0,0 l/m 0 min 2 min 0,0 UV-I 91 W/m 7,7 km/h (2 Bft)
08.05.2013 18:12 18,2 C 15,7 C 81 % 1009,0 hPa 0,0 l/m 0 min 2 min 0,0 UV-I 121 W/m 12,9 km/h (3 Bft)
08.05.2013 18:14 18,2 C 15,1 C 82 % 1009,0 hPa 0,0 l/m 0 min 0 min 0,0 UV-I 153 W/m 20,6 km/h (4 Bft)
08.05.2013 18:16 18,2 C 15,7 C 81 % 1009,0 hPa 0,0 l/m 0 min 0 min 0,0 UV-I 151 W/m 20,6 km/h (4 Bft)
08.05.2013 18:18 18,2 C 15,7 C 81 % 1009,0 hPa 0,0 l/m 0 min 0 min 0,0 UV-I 139 W/m 20,6 km/h (4 Bft)
08.05.2013 18:20 18,2 C 15,7 C 82 % 1009,0 hPa 0,0 l/m 0 min 0 min 0,0 UV-I 109 W/m 15,4 km/h (3 Bft)
08.05.2013 18:22 18,2 C 15,7 C 82 % 1008,9 hPa 0,0 l/m 0 min 0 min 0,0 UV-I 90 W/m 10,3 km/h (2 Bft)
08.05.2013 18:24 18,2 C 15,7 C 82 % 1008,9 hPa 0,0 l/m 0 min 0 min 0,0 UV-I 76 W/m 10,3 km/h (2 Bft)
08.05.2013 18:26 18,1 C 16,2 C 82 % 1008,9 hPa 0,0 l/m 0 min 0 min 0,0 UV-I 63 W/m 15,4 km/h (3 Bft)
08.05.2013 18:28 18,1 C 16,2 C 82 % 1008,9 hPa 0,0 l/m 0 min 0 min 0,0 UV-I 62 W/m 10,3 km/h (2 Bft)
08.05.2013 18:30 18,1 C 16,2 C 82 % 1008,8 hPa 0,0 l/m 0 min 0 min 0,0 UV-I 58 W/m 15,4 km/h (3 Bft)
08.05.2013 18:32 18,0 C 16,2 C 82 % 1008,9 hPa 0,0 l/m 0 min 0 min 0,0 UV-I 56 W/m 12,9 km/h (3 Bft)
08.05.2013 18:34 18,0 C 16,2 C 82 % 1008,9 hPa 0,0 l/m 0 min 0 min 0,0 UV-I 54 W/m 15,4 km/h (3 Bft)
08.05.2013 18:36 18,0 C 16,2 C 82 % 1008,8 hPa 0,0 l/m 0 min 2 min 0,0 UV-I 56 W/m 20,6 km/h (4 Bft)
08.05.2013 18:38 17,9 C 16,2 C 83 % 1008,9 hPa 0,0 l/m 0 min 0 min 0,0 UV-I 63 W/m 10,3 km/h (2 Bft)
08.05.2013 18:40 17,9 C 16,2 C 83 % 1008,9 hPa 0,0 l/m 0 min 0 min 0,0 UV-I 69 W/m 7,7 km/h (2 Bft)
08.05.2013 18:42 17,9 C 16,2 C 83 % 1008,8 hPa 0,0 l/m 0 min 0 min 0,0 UV-I 69 W/m 12,9 km/h (3 Bft)
08.05.2013 18:44 17,9 C 16,2 C 83 % 1008,9 hPa 0,0 l/m 0 min 0 min 0,0 UV-I 51 W/m 10,3 km/h (2 Bft)
08.05.2013 18:46 17,9 C 16,2 C 83 % 1008,9 hPa 0,0 l/m 0 min 0 min 0,0 UV-I 35 W/m 12,9 km/h (3 Bft)
08.05.2013 18:48 17,9 C 16,2 C 83 % 1008,9 hPa 0,0 l/m 0 min 0 min 0,0 UV-I 25 W/m 12,9 km/h (3 Bft)
08.05.2013 18:50 17,9 C 16,2 C 83 % 1009,0 hPa 0,0 l/m 0 min 2 min 0,0 UV-I 19 W/m 7,7 km/h (2 Bft)
08.05.2013 18:52 17,9 C 16,2 C 83 % 1008,9 hPa 0,0 l/m 0 min 0 min 0,0 UV-I 21 W/m 10,3 km/h (2 Bft)
08.05.2013 18:54 17,9 C 16,2 C 83 % 1009,0 hPa 0,0 l/m 0 min 0 min 0,0 UV-I 25 W/m 2,6 km/h (1 Bft)
08.05.2013 18:56 17,8 C 15,7 C 83 % 1009,0 hPa 0,0 l/m 0 min 2 min 0,0 UV-I 28 W/m 20,6 km/h (4 Bft)
08.05.2013 18:58 17,8 C 15,1 C 84 % 1009,0 hPa 0,0 l/m 0 min 2 min 0,0 UV-I 26 W/m 20,6 km/h (4 Bft)
08.05.2013 19:00 17,8 C 14,6 C 84 % 1009,0 hPa 0,0 l/m 0 min 2 min 0,0 UV-I 21 W/m 5,1 km/h (1 Bft)
08.05.2013 19:02 17,8 C 14,6 C 85 % 1009,0 hPa 0,0 l/m 0 min 2 min 0,0 UV-I 18 W/m 15,4 km/h (3 Bft)
08.05.2013 19:04 17,8 C 14,6 C 85 % 1008,9 hPa 0,0 l/m 0 min 2 min 0,0 UV-I 16 W/m 7,7 km/h (2 Bft)
08.05.2013 19:06 17,8 C 14,6 C 85 % 1009,0 hPa 0,0 l/m 0 min 0 min 0,0 UV-I 12 W/m 5,1 km/h (1 Bft)
08.05.2013 19:08 17,7 C 14,6 C 85 % 1009,1 hPa 0,0 l/m 0 min 2 min 0,0 UV-I 9 W/m 2,6 km/h (1 Bft)
08.05.2013 19:10 17,7 C 14,6 C 86 % 1009,0 hPa 0,2 l/m 0 min 2 min 0,0 UV-I 11 W/m 2,6 km/h (1 Bft)
08.05.2013 19:12 17,6 C 14,6 C 86 % 1008,9 hPa 0,0 l/m 0 min 2 min 0,0 UV-I 11 W/m 2,6 km/h (1 Bft)
08.05.2013 19:14 17,6 C 14,6 C 86 % 1009,0 hPa 0,0 l/m 0 min 2 min 0,0 UV-I 14 W/m 12,9 km/h (3 Bft)
08.05.2013 19:16 17,5 C 14,6 C 86 % 1009,1 hPa 0,0 l/m 0 min 2 min 0,0 UV-I 21 W/m 7,7 km/h (2 Bft)
08.05.2013 19:18 17,4 C 14,6 C 86 % 1009,1 hPa 0,0 l/m 0 min 2 min 0,0 UV-I 23 W/m 0,0 km/h (0 Bft)
08.05.2013 19:20 17,3 C 14,6 C 87 % 1009,2 hPa 0,0 l/m 0 min 2 min 0,0 UV-I 32 W/m 5,1 km/h (1 Bft)
08.05.2013 19:22 17,3 C 14,0 C 87 % 1009,2 hPa 0,0 l/m 0 min 2 min 0,0 UV-I 32 W/m 33,5 km/h (5 Bft)
08.05.2013 19:24 17,2 C 14,0 C 87 % 1009,2 hPa 0,0 l/m 0 min 2 min 0,0 UV-I 40 W/m 10,3 km/h (2 Bft)
08.05.2013 19:26 17,1 C 14,0 C 87 % 1009,0 hPa 0,0 l/m 0 min 2 min 0,0 UV-I 49 W/m 5,1 km/h (1 Bft)
08.05.2013 19:28 17,1 C 14,0 C 87 % 1009,0 hPa 0,0 l/m 0 min 0 min 0,0 UV-I 49 W/m 7,7 km/h (2 Bft)
08.05.2013 19:30 17,0 C 14,0 C 87 % 1009,1 hPa 0,0 l/m 0 min 0 min 0,0 UV-I 49 W/m 5,1 km/h (1 Bft)
08.05.2013 19:32 16,9 C 14,0 C 87 % 1009,0 hPa 0,0 l/m 0 min 0 min 0,0 UV-I 46 W/m 7,7 km/h (2 Bft)
08.05.2013 19:34 16,9 C 14,0 C 87 % 1009,0 hPa 0,0 l/m 0 min 0 min 0,0 UV-I 47 W/m 2,6 km/h (1 Bft)
08.05.2013 19:36 16,9 C 14,0 C 87 % 1009,0 hPa 0,0 l/m 0 min 0 min 0,0 UV-I 49 W/m 2,6 km/h (1 Bft)
08.05.2013 19:38 16,9 C 14,0 C 87 % 1009,0 hPa 0,0 l/m 0 min 0 min 0,0 UV-I 53 W/m 0,0 km/h (0 Bft)
08.05.2013 19:40 16,8 C 14,0 C 88 % 1009,1 hPa 0,0 l/m 0 min 0 min 0,0 UV-I 60 W/m 10,3 km/h (2 Bft)
08.05.2013 19:42 16,8 C 14,6 C 88 % 1009,1 hPa 0,0 l/m 0 min 0 min 0,0 UV-I 56 W/m 0,0 km/h (0 Bft)
08.05.2013 19:44 16,8 C 14,6 C 88 % 1009,0 hPa 0,0 l/m 0 min 0 min 0,0 UV-I 60 W/m 5,1 km/h (1 Bft)
08.05.2013 19:46 16,8 C 14,6 C 88 % 1009,0 hPa 0,0 l/m 0 min 0 min 0,0 UV-I 67 W/m 10,3 km/h (2 Bft)
08.05.2013 19:48 16,8 C 14,6 C 88 % 1009,0 hPa 0,0 l/m 0 min 0 min 0,0 UV-I 56 W/m 5,1 km/h (1 Bft)
08.05.2013 19:50 16,7 C 14,6 C 88 % 1009,0 hPa 0,0 l/m 0 min 0 min 0,0 UV-I 56 W/m 5,1 km/h (1 Bft)
08.05.2013 19:52 16,7 C 14,6 C 88 % 1009,0 hPa 0,0 l/m 0 min 0 min 0,0 UV-I 49 W/m 7,7 km/h (2 Bft)
08.05.2013 19:54 16,7 C 14,6 C 88 % 1008,9 hPa 0,0 l/m 0 min 0 min 0,0 UV-I 47 W/m 5,1 km/h (1 Bft)
08.05.2013 19:56 16,7 C 14,6 C 88 % 1009,0 hPa 0,0 l/m 0 min 0 min 0,0 UV-I 49 W/m 5,1 km/h (1 Bft)
08.05.2013 19:58 16,7 C 14,6 C 88 % 1009,0 hPa 0,0 l/m 0 min 0 min 0,0 UV-I 47 W/m 12,9 km/h (3 Bft)
08.05.2013 20:00 16,7 C 14,6 C 88 % 1009,0 hPa 0,0 l/m 0 min 0 min 0,0 UV-I 44 W/m 10,3 km/h (2 Bft)
08.05.2013 20:02 16,7 C 14,6 C 88 % 1009,1 hPa 0,0 l/m 0 min 0 min 0,0 UV-I 44 W/m 12,9 km/h (3 Bft)
08.05.2013 20:04 16,7 C 14,6 C 87 % 1009,2 hPa 0,0 l/m 0 min 0 min 0,0 UV-I 46 W/m 12,9 km/h (3 Bft)
08.05.2013 20:06 16,7 C 14,6 C 87 % 1009,1 hPa 0,0 l/m 0 min 0 min 0,0 UV-I 47 W/m 15,4 km/h (3 Bft)
08.05.2013 20:08 16,7 C 14,6 C 86 % 1009,0 hPa 0,0 l/m 0 min 0 min 0,0 UV-I 47 W/m 7,7 km/h (2 Bft)
08.05.2013 20:10 16,8 C 15,1 C 86 % 1008,9 hPa 0,0 l/m 0 min 0 min 0,0 UV-I 47 W/m 5,1 km/h (1 Bft)
08.05.2013 20:12 16,8 C 15,1 C 86 % 1009,0 hPa 0,0 l/m 0 min 0 min 0,0 UV-I 47 W/m 7,7 km/h (2 Bft)
08.05.2013 20:14 16,8 C 15,1 C 86 % 1009,0 hPa 0,0 l/m 0 min 0 min 0,0 UV-I 40 W/m 18,0 km/h (3 Bft)
08.05.2013 20:16 16,8 C 15,1 C 86 % 1008,9 hPa 0,0 l/m 0 min 0 min 0,0 UV-I 32 W/m 12,9 km/h (3 Bft)
08.05.2013 20:18 16,8 C 15,1 C 86 % 1009,0 hPa 0,0 l/m 0 min 0 min 0,0 UV-I 23 W/m 0,0 km/h (0 Bft)
08.05.2013 20:20 16,8 C 15,1 C 86 % 1009,0 hPa 0,0 l/m 0 min 0 min 0,0 UV-I 21 W/m 7,7 km/h (2 Bft)
08.05.2013 20:22 16,8 C 15,1 C 86 % 1009,0 hPa 0,0 l/m 0 min 0 min 0,0 UV-I 19 W/m 7,7 km/h (2 Bft)
08.05.2013 20:24 16,8 C 15,1 C 86 % 1008,9 hPa 0,0 l/m 0 min 2 min 0,0 UV-I 18 W/m 12,9 km/h (3 Bft)
08.05.2013 20:26 16,8 C 15,1 C 86 % 1008,9 hPa 0,0 l/m 0 min 0 min 0,0 UV-I 18 W/m 10,3 km/h (2 Bft)
08.05.2013 20:28 16,8 C 15,1 C 86 % 1009,0 hPa 0,0 l/m 0 min 0 min 0,0 UV-I 16 W/m 10,3 km/h (2 Bft)
08.05.2013 20:30 16,8 C 15,1 C 86 % 1009,1 hPa 0,0 l/m 0 min 0 min 0,0 UV-I 12 W/m 5,1 km/h (1 Bft)
08.05.2013 20:32 16,8 C 15,1 C 86 % 1009,1 hPa 0,0 l/m 0 min 0 min 0,0 UV-I 12 W/m 18,0 km/h (3 Bft)
08.05.2013 20:34 16,9 C 15,1 C 86 % 1009,0 hPa 0,0 l/m 0 min 0 min 0,0 UV-I 12 W/m 7,7 km/h (2 Bft)
08.05.2013 20:36 16,8 C 15,1 C 86 % 1009,0 hPa 0,0 l/m 0 min 0 min 0,0 UV-I 11 W/m 7,7 km/h (2 Bft)
08.05.2013 20:38 16,8 C 15,1 C 86 % 1009,0 hPa 0,0 l/m 0 min 0 min 0,0 UV-I 11 W/m 7,7 km/h (2 Bft)
08.05.2013 20:40 16,8 C 15,1 C 86 % 1009,0 hPa 0,0 l/m 0 min 0 min 0,0 UV-I 9 W/m 5,1 km/h (1 Bft)
08.05.2013 20:42 16,8 C 15,1 C 86 % 1009,1 hPa 0,0 l/m 0 min 0 min 0,0 UV-I 9 W/m 5,1 km/h (1 Bft)
08.05.2013 20:44 16,8 C 15,1 C 86 % 1009,1 hPa 0,0 l/m 0 min 0 min 0,0 UV-I 9 W/m 5,1 km/h (1 Bft)
08.05.2013 20:46 16,8 C 15,1 C 86 % 1009,1 hPa 0,0 l/m 0 min 0 min 0,0 UV-I 7 W/m 5,1 km/h (1 Bft)
08.05.2013 20:48 16,8 C 15,1 C 86 % 1009,2 hPa 0,0 l/m 0 min 0 min 0,0 UV-I 7 W/m 15,4 km/h (3 Bft)
08.05.2013 20:50 16,8 C 15,1 C 86 % 1009,2 hPa 0,0 l/m 0 min 0 min 0,0 UV-I 7 W/m 7,7 km/h (2 Bft)
08.05.2013 20:52 16,8 C 15,1 C 86 % 1009,2 hPa 0,0 l/m 0 min 0 min 0,0 UV-I 7 W/m 0,0 km/h (0 Bft)
08.05.2013 20:54 16,8 C 15,1 C 86 % 1009,3 hPa 0,0 l/m 0 min 0 min 0,0 UV-I 7 W/m 7,7 km/h (2 Bft)
08.05.2013 20:56 16,8 C 15,1 C 86 % 1009,3 hPa 0,0 l/m 0 min 0 min 0,0 UV-I 5 W/m 10,3 km/h (2 Bft)
08.05.2013 20:58 16,8 C 15,1 C 86 % 1009,3 hPa 0,0 l/m 0 min 0 min 0,0 UV-I 5 W/m 7,7 km/h (2 Bft)
08.05.2013 21:00 16,7 C 15,1 C 86 % 1009,3 hPa 0,0 l/m 0 min 0 min 0,0 UV-I 5 W/m 2,6 km/h (1 Bft)
08.05.2013 21:02 16,7 C 15,1 C 86 % 1009,3 hPa 0,0 l/m 0 min 0 min 0,0 UV-I 5 W/m 5,1 km/h (1 Bft)
08.05.2013 21:04 16,7 C 15,1 C 86 % 1009,3 hPa 0,0 l/m 0 min 0 min 0,0 UV-I 0 W/m 0,0 km/h (0 Bft)
08.05.2013 21:06 16,7 C 15,1 C 86 % 1009,3 hPa 0,0 l/m 0 min 0 min 0,0 UV-I 0 W/m 5,1 km/h (1 Bft)
08.05.2013 21:08 16,7 C 14,6 C 86 % 1009,3 hPa 0,0 l/m 0 min 0 min 0,0 UV-I 0 W/m 7,7 km/h (2 Bft)
08.05.2013 21:10 16,7 C 14,6 C 86 % 1009,4 hPa 0,0 l/m 0 min 0 min 0,0 UV-I 0 W/m 2,6 km/h (1 Bft)
08.05.2013 21:12 16,7 C 14,6 C 86 % 1009,3 hPa 0,0 l/m 0 min 0 min 0,0 UV-I 0 W/m 2,6 km/h (1 Bft)
08.05.2013 21:14 16,6 C 14,6 C 86 % 1009,4 hPa 0,0 l/m 0 min 0 min 0,0 UV-I 0 W/m 2,6 km/h (1 Bft)
08.05.2013 21:16 16,6 C 14,6 C 86 % 1009,4 hPa 0,0 l/m 0 min 0 min 0,0 UV-I 0 W/m 2,6 km/h (1 Bft)
08.05.2013 21:18 16,6 C 14,6 C 86 % 1009,5 hPa 0,0 l/m 0 min 0 min 0,0 UV-I 0 W/m 2,6 km/h (1 Bft)
08.05.2013 21:20 16,6 C 14,6 C 86 % 1009,5 hPa 0,0 l/m 0 min 0 min 0,0 UV-I 0 W/m 2,6 km/h (1 Bft)
08.05.2013 21:22 16,5 C 14,6 C 86 % 1009,6 hPa 0,0 l/m 0 min 0 min 0,0 UV-I 0 W/m 0,0 km/h (0 Bft)
08.05.2013 21:24 16,5 C 14,6 C 86 % 1009,6 hPa 0,0 l/m 0 min 0 min 0,0 UV-I 0 W/m 2,6 km/h (1 Bft)
08.05.2013 21:26 16,5 C 14,6 C 87 % 1009,7 hPa 0,0 l/m 0 min 0 min 0,0 UV-I 0 W/m 5,1 km/h (1 Bft)
08.05.2013 21:28 16,4 C 14,6 C 87 % 1009,6 hPa 0,0 l/m 0 min 0 min 0,0 UV-I 0 W/m 0,0 km/h (0 Bft)
08.05.2013 21:30 16,4 C 14,6 C 87 % 1009,7 hPa 0,0 l/m 0 min 0 min 0,0 UV-I 0 W/m 2,6 km/h (1 Bft)
08.05.2013 21:32 16,4 C 14,6 C 87 % 1009,7 hPa 0,0 l/m 0 min 0 min 0,0 UV-I 0 W/m 2,6 km/h (1 Bft)
08.05.2013 21:34 16,4 C 14,0 C 87 % 1009,7 hPa 0,0 l/m 0 min 0 min 0,0 UV-I 0 W/m 2,6 km/h (1 Bft)
08.05.2013 21:36 16,4 C 14,0 C 87 % 1009,7 hPa 0,0 l/m 0 min 0 min 0,0 UV-I 0 W/m 0,0 km/h (0 Bft)
08.05.2013 21:38 16,3 C 14,0 C 87 % 1009,7 hPa 0,0 l/m 0 min 0 min 0,0 UV-I 0 W/m 2,6 km/h (1 Bft)
08.05.2013 21:40 16,3 C 14,0 C 87 % 1009,7 hPa 0,0 l/m 0 min 0 min 0,0 UV-I 0 W/m 2,6 km/h (1 Bft)
08.05.2013 21:42 16,3 C 14,0 C 87 % 1009,7 hPa 0,0 l/m 0 min 0 min 0,0 UV-I 0 W/m 5,1 km/h (1 Bft)
08.05.2013 21:44 16,3 C 14,0 C 87 % 1009,7 hPa 0,0 l/m 0 min 0 min 0,0 UV-I 0 W/m 10,3 km/h (2 Bft)
08.05.2013 21:46 16,2 C 14,0 C 88 % 1009,7 hPa 0,0 l/m 0 min 0 min 0,0 UV-I 0 W/m 5,1 km/h (1 Bft)
08.05.2013 21:48 16,2 C 14,0 C 88 % 1009,8 hPa 0,0 l/m 0 min 0 min 0,0 UV-I 0 W/m 7,7 km/h (2 Bft)
08.05.2013 21:50 16,2 C 14,0 C 88 % 1009,8 hPa 0,0 l/m 0 min 0 min 0,0 UV-I 0 W/m 7,7 km/h (2 Bft)
08.05.2013 21:52 16,1 C 14,0 C 88 % 1009,8 hPa 0,0 l/m 0 min 0 min 0,0 UV-I 0 W/m 2,6 km/h (1 Bft)
08.05.2013 21:54 16,1 C 14,0 C 88 % 1009,8 hPa 0,0 l/m 0 min 0 min 0,0 UV-I 0 W/m 5,1 km/h (1 Bft)
08.05.2013 21:56 16,1 C 14,0 C 88 % 1009,8 hPa 0,0 l/m 0 min 0 min 0,0 UV-I 0 W/m 2,6 km/h (1 Bft)
08.05.2013 21:58 16,1 C 14,0 C 88 % 1009,9 hPa 0,0 l/m 0 min 0 min 0,0 UV-I 0 W/m 5,1 km/h (1 Bft)
08.05.2013 22:00 16,0 C 14,0 C 88 % 1009,9 hPa 0,0 l/m 0 min 0 min 0,0 UV-I 0 W/m 2,6 km/h (1 Bft)
08.05.2013 22:02 16,0 C 14,0 C 88 % 1009,9 hPa 0,0 l/m 0 min 0 min 0,0 UV-I 0 W/m 0,0 km/h (0 Bft)
08.05.2013 22:04 15,9 C 14,0 C 88 % 1009,9 hPa 0,0 l/m 0 min 0 min 0,0 UV-I 0 W/m 10,3 km/h (2 Bft)
08.05.2013 22:06 15,9 C 14,0 C 88 % 1009,9 hPa 0,0 l/m 0 min 0 min 0,0 UV-I 0 W/m 7,7 km/h (2 Bft)
08.05.2013 22:08 15,9 C 14,0 C 88 % 1009,9 hPa 0,0 l/m 0 min 0 min 0,0 UV-I 0 W/m 2,6 km/h (1 Bft)
08.05.2013 22:10 15,9 C 14,0 C 89 % 1009,9 hPa 0,0 l/m 0 min 0 min 0,0 UV-I 0 W/m 0,0 km/h (0 Bft)
08.05.2013 22:12 15,9 C 14,0 C 89 % 1009,9 hPa 0,0 l/m 0 min 0 min 0,0 UV-I 0 W/m 0,0 km/h (0 Bft)
08.05.2013 22:14 15,8 C 14,0 C 89 % 1010,0 hPa 0,0 l/m 0 min 0 min 0,0 UV-I 0 W/m 2,6 km/h (1 Bft)
08.05.2013 22:16 15,8 C 14,0 C 89 % 1010,0 hPa 0,0 l/m 0 min 0 min 0,0 UV-I 0 W/m 0,0 km/h (0 Bft)
08.05.2013 22:18 15,8 C 14,0 C 89 % 1010,0 hPa 0,0 l/m 0 min 0 min 0,0 UV-I 0 W/m 5,1 km/h (1 Bft)
08.05.2013 22:20 15,8 C 14,0 C 89 % 1009,9 hPa 0,0 l/m 0 min 0 min 0,0 UV-I 0 W/m 2,6 km/h (1 Bft)
08.05.2013 22:22 15,8 C 14,0 C 89 % 1009,9 hPa 0,0 l/m 0 min 0 min 0,0 UV-I 0 W/m 5,1 km/h (1 Bft)
08.05.2013 22:24 15,8 C 14,0 C 89 % 1010,0 hPa 0,0 l/m 0 min 0 min 0,0 UV-I 0 W/m 0,0 km/h (0 Bft)
08.05.2013 22:26 15,8 C 14,0 C 89 % 1010,0 hPa 0,0 l/m 0 min 0 min 0,0 UV-I 0 W/m 7,7 km/h (2 Bft)
08.05.2013 22:28 15,8 C 14,0 C 89 % 1010,0 hPa 0,0 l/m 0 min 0 min 0,0 UV-I 0 W/m 10,3 km/h (2 Bft)
08.05.2013 22:30 15,8 C 14,0 C 89 % 1010,0 hPa 0,0 l/m 0 min 0 min 0,0 UV-I 0 W/m 2,6 km/h (1 Bft)
08.05.2013 22:32 15,7 C 14,0 C 89 % 1009,9 hPa 0,0 l/m 0 min 0 min 0,0 UV-I 0 W/m 7,7 km/h (2 Bft)
08.05.2013 22:34 15,7 C 14,0 C 89 % 1010,0 hPa 0,0 l/m 0 min 0 min 0,0 UV-I 0 W/m 2,6 km/h (1 Bft)
08.05.2013 22:36 15,7 C 14,0 C 89 % 1009,9 hPa 0,0 l/m 0 min 0 min 0,0 UV-I 0 W/m 2,6 km/h (1 Bft)
08.05.2013 22:38 15,7 C 14,0 C 89 % 1010,0 hPa 0,0 l/m 0 min 0 min 0,0 UV-I 0 W/m 0,0 km/h (0 Bft)
08.05.2013 22:40 15,7 C 14,0 C 89 % 1010,0 hPa 0,0 l/m 0 min 0 min 0,0 UV-I 0 W/m 0,0 km/h (0 Bft)
08.05.2013 22:42 15,7 C 14,0 C 90 % 1010,0 hPa 0,0 l/m 0 min 0 min 0,0 UV-I 0 W/m 5,1 km/h (1 Bft)
08.05.2013 22:44 15,7 C 14,0 C 90 % 1010,0 hPa 0,0 l/m 0 min 0 min 0,0 UV-I 0 W/m 0,0 km/h (0 Bft)
08.05.2013 22:46 15,7 C 14,0 C 90 % 1010,1 hPa 0,0 l/m 0 min 0 min 0,0 UV-I 0 W/m 2,6 km/h (1 Bft)
08.05.2013 22:48 15,7 C 14,0 C 90 % 1010,2 hPa 0,0 l/m 0 min 0 min 0,0 UV-I 0 W/m 0,0 km/h (0 Bft)
08.05.2013 22:50 15,7 C 14,0 C 90 % 1010,1 hPa 0,0 l/m 0 min 0 min 0,0 UV-I 0 W/m 0,0 km/h (0 Bft)
08.05.2013 22:52 15,7 C 14,0 C 90 % 1010,1 hPa 0,0 l/m 0 min 0 min 0,0 UV-I 0 W/m 7,7 km/h (2 Bft)
08.05.2013 22:54 15,7 C 14,0 C 90 % 1010,2 hPa 0,0 l/m 0 min 0 min 0,0 UV-I 0 W/m 5,1 km/h (1 Bft)
08.05.2013 22:56 15,7 C 14,0 C 90 % 1010,2 hPa 0,0 l/m 0 min 0 min 0,0 UV-I 0 W/m 5,1 km/h (1 Bft)
08.05.2013 22:58 15,7 C 14,6 C 90 % 1010,2 hPa 0,0 l/m 0 min 0 min 0,0 UV-I 0 W/m 5,1 km/h (1 Bft)
08.05.2013 23:00 15,7 C 14,6 C 90 % 1010,3 hPa 0,0 l/m 0 min 0 min 0,0 UV-I 0 W/m 7,7 km/h (2 Bft)
08.05.2013 23:02 15,7 C 14,6 C 90 % 1010,4 hPa 0,0 l/m 0 min 0 min 0,0 UV-I 0 W/m 12,9 km/h (3 Bft)
08.05.2013 23:04 15,7 C 14,6 C 90 % 1010,5 hPa 0,0 l/m 0 min 0 min 0,0 UV-I 0 W/m 12,9 km/h (3 Bft)
08.05.2013 23:06 15,7 C 14,6 C 90 % 1010,6 hPa 0,0 l/m 0 min 0 min 0,0 UV-I 0 W/m 12,9 km/h (3 Bft)
08.05.2013 23:08 15,7 C 14,6 C 89 % 1010,6 hPa 0,0 l/m 0 min 0 min 0,0 UV-I 0 W/m 7,7 km/h (2 Bft)
08.05.2013 23:10 15,7 C 14,6 C 89 % 1010,6 hPa 0,0 l/m 0 min 0 min 0,0 UV-I 0 W/m 25,7 km/h (4 Bft)
08.05.2013 23:12 15,7 C 14,6 C 88 % 1010,5 hPa 0,0 l/m 0 min 0 min 0,0 UV-I 0 W/m 7,7 km/h (2 Bft)
08.05.2013 23:14 15,7 C 14,6 C 88 % 1010,5 hPa 0,0 l/m 0 min 0 min 0,0 UV-I 0 W/m 10,3 km/h (2 Bft)
08.05.2013 23:16 15,7 C 14,6 C 88 % 1010,5 hPa 0,0 l/m 0 min 0 min 0,0 UV-I 0 W/m 2,6 km/h (1 Bft)
08.05.2013 23:18 15,7 C 14,6 C 87 % 1010,5 hPa 0,0 l/m 0 min 0 min 0,0 UV-I 0 W/m 2,6 km/h (1 Bft)
08.05.2013 23:20 15,7 C 14,0 C 87 % 1010,5 hPa 0,0 l/m 0 min 0 min 0,0 UV-I 0 W/m 12,9 km/h (3 Bft)
08.05.2013 23:22 15,7 C 14,0 C 86 % 1010,5 hPa 0,0 l/m 0 min 0 min 0,0 UV-I 0 W/m 2,6 km/h (1 Bft)
08.05.2013 23:24 15,7 C 14,0 C 86 % 1010,5 hPa 0,0 l/m 0 min 0 min 0,0 UV-I 0 W/m 2,6 km/h (1 Bft)
08.05.2013 23:26 15,6 C 14,0 C 86 % 1010,6 hPa 0,0 l/m 0 min 0 min 0,0 UV-I 0 W/m 0,0 km/h (0 Bft)
08.05.2013 23:28 15,7 C 14,0 C 85 % 1010,6 hPa 0,0 l/m 0 min 0 min 0,0 UV-I 0 W/m 2,6 km/h (1 Bft)
08.05.2013 23:30 15,7 C 14,0 C 86 % 1010,6 hPa 0,0 l/m 0 min 0 min 0,0 UV-I 0 W/m 0,0 km/h (0 Bft)
08.05.2013 23:32 15,6 C 14,0 C 85 % 1010,7 hPa 0,0 l/m 0 min 0 min 0,0 UV-I 0 W/m 7,7 km/h (2 Bft)
08.05.2013 23:34 15,6 C 14,0 C 85 % 1010,6 hPa 0,0 l/m 0 min 0 min 0,0 UV-I 0 W/m 0,0 km/h (0 Bft)
08.05.2013 23:36 15,6 C 14,0 C 85 % 1010,6 hPa 0,0 l/m 0 min 0 min 0,0 UV-I 0 W/m 0,0 km/h (0 Bft)
08.05.2013 23:38 15,6 C 14,0 C 85 % 1010,7 hPa 0,0 l/m 0 min 0 min 0,0 UV-I 0 W/m 0,0 km/h (0 Bft)
08.05.2013 23:40 15,6 C 14,0 C 85 % 1010,8 hPa 0,0 l/m 0 min 0 min 0,0 UV-I 0 W/m 2,6 km/h (1 Bft)
08.05.2013 23:42 15,6 C 14,0 C 85 % 1010,7 hPa 0,0 l/m 0 min 0 min 0,0 UV-I 0 W/m 7,7 km/h (2 Bft)
08.05.2013 23:44 15,6 C 14,0 C 85 % 1010,7 hPa 0,0 l/m 0 min 0 min 0,0 UV-I 0 W/m 0,0 km/h (0 Bft)
08.05.2013 23:46 15,5 C 13,4 C 85 % 1010,7 hPa 0,0 l/m 0 min 0 min 0,0 UV-I 0 W/m 2,6 km/h (1 Bft)
08.05.2013 23:48 15,4 C 13,4 C 85 % 1010,7 hPa 0,0 l/m 0 min 0 min 0,0 UV-I 0 W/m 2,6 km/h (1 Bft)
08.05.2013 23:50 15,4 C 14,0 C 85 % 1010,7 hPa 0,0 l/m 0 min 0 min 0,0 UV-I 0 W/m 0,0 km/h (0 Bft)
08.05.2013 23:52 15,4 C 13,4 C 85 % 1010,6 hPa 0,0 l/m 0 min 0 min 0,0 UV-I 0 W/m 7,7 km/h (2 Bft)
08.05.2013 23:54 15,4 C 13,4 C 84 % 1010,6 hPa 0,0 l/m 0 min 0 min 0,0 UV-I 0 W/m 2,6 km/h (1 Bft)
08.05.2013 23:56 15,4 C 13,4 C 84 % 1010,6 hPa 0,0 l/m 0 min 0 min 0,0 UV-I 0 W/m 2,6 km/h (1 Bft)
08.05.2013 23:58 15,3 C 13,4 C 84 % 1010,7 hPa 0,0 l/m 0 min 0 min 0,0 UV-I 0 W/m 0,0 km/h (0 Bft)
_ Min-Zeit 06:12 04:18 14:46 18:30 - - - - - 00:00
Minimum _ 10,2 C 9,0 C 54 % 1008,8 hPa - - - - - 0,0 km/h (0 Bft)
_ Max-Zeit 14:30 12:08 10:38 00:00 09:28 08:06 06:38 14:26 14:26 15:32
Maximum _ 22,9 C 25,1 C 100 % 1012,4 hPa 0,2 l/m 2 min 2 min 4,1 UV-I 953 W/m 36,0 km/h
SW (5 Bft)
Durchschnitt _ 15,3 C 14,4 C 88 % 1010,4 hPa #1,0 l/m #3:06 h #2:28 h 1,9 UV-I 233 W/m 6,8 km/h (2 Bft)
© 2013 W. Hausmann